Laatste waarneming: 00:37
Temperatuur:19,8°C
Dauwpunt:14,8°C
Rel. vocht:73,0%
Natte-bol:17,3°C
Wind (gem. 10 min.):2,1 m/s
Wind (max. 10 min.): m/s
Windrichting:314°
Neerslagsom:0,0 mm
Neerslagintensiteit:0,0 mm/u
Luchtdruk:1017,6 hPa
Straling:0,0 W/m2
 
Maximumtemp.:20,1°C (00:00)
Minimumtemp.:19,8°C (00:09)
Hoogste windstoot:- m/s (23:32)


Bekijk het Grafiekoverzicht.
Bekijk het Maandoverzicht.
Dagtabel
Tijd Temp. Dauwp. Natte-bol Rel. Hum. Windsnelh. Windricht. Windstoot Neerslag Straling Luchtdruk
 
00:37 19,8 14,8 17,3 73,0 2,1 314 - 0,0 0 1.017,6
00:36 19,8 14,8 17,3 73,0 2,1 314 - 0,0 0 1.017,6
00:35 19,8 14,8 17,3 73,0 2,2 314 - 0,0 0 1.017,6
00:34 19,8 14,8 17,3 73,0 2,0 314 - 0,0 0 1.017,6
00:33 19,8 14,8 17,3 73,0 2,0 314 - 0,0 0 1.017,6
00:32 19,8 14,8 17,3 73,0 2,0 314 - 0,0 0 1.017,7
00:31 19,9 14,9 17,4 73,0 1,9 313 - 0,0 0 1.017,7
00:30 19,9 14,9 17,4 73,0 1,8 313 - 0,0 0 1.017,6
00:29 19,9 14,9 17,4 73,0 1,8 312 - 0,0 0 1.017,6
00:28 19,9 14,9 17,4 73,0 1,8 312 - 0,0 0 1.017,7
00:27 19,9 14,9 17,4 73,0 1,7 312 - 0,0 0 1.017,7
00:26 19,9 14,9 17,4 73,0 1,6 311 - 0,0 0 1.017,7
00:25 19,9 14,9 17,4 73,0 1,6 312 - 0,0 0 1.017,7
00:24 19,9 14,9 17,4 73,0 1,6 313 - 0,0 0 1.017,7
00:23 19,9 14,9 17,4 73,0 1,6 315 - 0,0 0 1.017,6
00:22 19,9 14,8 17,3 72,3 1,6 317 - 0,0 0 1.017,6
00:21 19,9 14,7 17,3 72,1 1,6 317 - 0,0 0 1.017,6
00:20 19,9 14,9 17,4 73,0 1,6 319 - 0,0 0 1.017,7
00:19 19,9 14,9 17,4 72,7 1,7 319 - 0,0 0 1.017,7
00:18 19,9 14,7 17,2 72,0 1,8 317 - 0,0 0 1.017,7
00:17 19,9 14,7 17,2 72,0 1,8 315 - 0,0 0 1.017,7
00:16 19,8 14,6 17,1 72,0 1,9 314 - 0,0 0 1.017,7
00:15 19,9 14,7 17,2 72,0 2,0 313 - 0,0 0 1.017,7
00:14 19,9 14,7 17,2 72,0 2,0 312 - 0,0 0 1.017,7
00:13 19,9 14,7 17,2 72,0 2,0 312 - 0,0 0 1.017,7
00:12 19,9 14,7 17,2 72,0 1,9 312 - 0,0 0 1.017,7
00:11 19,9 14,7 17,2 72,0 2,0 314 - 0,0 0 1.017,7
00:10 19,9 14,7 17,2 72,0 2,1 315 - 0,0 0 1.017,8
00:09 19,8 14,6 17,1 72,0 2,2 317 - 0,0 0 1.017,8
00:08 19,9 14,7 17,2 72,0 2,4 318 - 0,0 0 1.017,8
00:07 19,9 14,7 17,2 72,0 2,6 317 - 0,0 0 1.017,8
00:06 19,9 14,8 17,3 72,6 2,8 315 - 0,0 0 1.017,8
00:05 19,9 14,9 17,4 73,0 2,6 314 - 0,0 0 1.017,7
00:04 19,9 14,9 17,4 73,0 2,5 314 - 0,0 0 1.017,8
00:03 19,9 14,9 17,4 73,0 2,7 313 - 0,0 0 1.017,8
00:02 20,0 15,0 17,5 73,0 2,9 313 - 0,0 0 1.017,8
00:01 20,0 15,0 17,5 73,0 3,0 313 - 0,0 0 1.017,8
00:00 20,1 15,1 17,6 73,0 2,9 313 - 0,0 0 1.017,9
 
23:59 20,0 15,0 17,5 73,0 3,0 313 - 0,0 0 1.018,0
23:58 19,9 14,9 17,4 73,0 3,1 312 - 0,0 0 1.018,0
23:57 19,9 14,7 17,3 72,1 3,2 311 - 0,0 0 1.018,0
23:56 20,0 14,8 17,3 72,0 3,3 311 - 0,0 0 1.018,0
23:55 20,0 14,8 17,3 72,0 3,4 311 - 0,0 0 1.018,0
23:54 20,0 14,8 17,3 72,0 3,4 311 - 0,0 0 1.018,0
23:53 20,1 15,0 17,5 72,7 3,2 311 - 0,0 0 1.018,0
23:52 20,1 15,1 17,6 73,0 3,0 311 - 0,0 0 1.018,0
23:51 20,1 14,9 17,5 72,1 2,9 310 - 0,0 0 1.018,0
23:50 20,1 14,9 17,4 72,0 3,1 309 - 0,0 0 1.018,1
23:49 20,2 15,0 17,5 72,0 3,5 308 - 0,0 0 1.018,1
23:48 20,2 15,0 17,5 72,0 3,8 307 - 0,0 0 1.018,1
23:47 20,2 15,0 17,5 72,0 3,8 307 - 0,0 0 1.018,2
23:46 20,2 15,0 17,5 72,0 3,6 308 - 0,0 0 1.018,2
23:45 20,3 15,1 17,6 72,0 3,5 308 - 0,0 0 1.018,1
23:44 20,3 15,1 17,6 72,0 3,5 308 - 0,0 0 1.018,1
23:43 20,3 15,1 17,6 72,0 3,5 308 - 0,0 0 1.018,1
23:42 20,3 15,1 17,6 72,0 3,6 308 - 0,0 0 1.018,1
23:41 20,4 15,2 17,7 72,0 3,8 308 - 0,0 0 1.018,1
23:40 20,4 15,2 17,7 72,0 3,7 307 - 0,0 0 1.018,1
23:39 20,3 15,0 17,6 71,8 3,5 307 - 0,0 0 1.018,0
23:38 20,3 14,9 17,5 71,0 3,4 306 - 0,0 0 1.018,0
23:37 20,4 15,0 17,6 71,0 3,5 306 - 0,0 0 1.018,0
23:36 20,4 15,0 17,6 71,0 3,8 304 - 0,0 0 1.018,1
23:35 20,5 15,1 17,7 71,0 4,3 303 - 0,0 0 1.018,1
23:34 20,5 15,1 17,7 71,3 4,7 302 - 0,0 0 1.018,1
23:33 20,6 15,3 17,9 71,6 5,0 300 - 0,0 0 1.018,1
23:32 20,7 15,3 17,9 71,0 5,0 298 - 0,0 0 1.018,1
23:31 20,8 15,5 18,0 71,5 4,8 297 - 0,0 0 1.018,2
23:30 20,8 15,4 18,0 71,2 4,4 295 - 0,0 0 1.018,1
23:29 20,9 15,4 18,0 71,0 3,9 293 - 0,0 0 1.018,1
23:28 20,9 15,4 18,0 71,0 3,7 293 - 0,0 0 1.018,1
23:27 21,0 15,5 18,1 70,8 3,6 292 - 0,0 0 1.018,1
23:26 21,0 15,2 17,9 69,6 3,4 290 - 0,0 0 1.018,1
23:25 20,9 14,8 17,5 67,9 3,2 288 - 0,0 0 1.018,1
23:24 20,9 14,5 17,4 67,0 3,1 286 - 0,0 0 1.018,1
23:23 20,9 14,5 17,4 67,0 3,0 285 - 0,0 0 1.018,1
23:22 20,9 14,5 17,4 67,0 3,0 284 - 0,0 0 1.018,1
23:21 20,9 14,5 17,4 67,0 2,7 284 - 0,0 0 1.018,1
23:20 20,9 14,6 17,5 67,4 2,6 285 - 0,0 0 1.018,1
23:19 21,0 14,8 17,6 67,5 2,5 286 - 0,0 0 1.018,1
23:18 20,9 14,5 17,4 67,0 2,5 287 - 0,0 0 1.018,0
23:17 20,9 14,5 17,4 67,0 2,6 287 - 0,0 0 1.018,0
23:16 20,9 14,5 17,4 67,0 2,6 287 - 0,0 0 1.018,0
23:15 21,0 14,6 17,5 67,0 2,5 286 - 0,0 0 1.018,0
23:14 21,0 14,6 17,5 67,0 2,5 286 - 0,0 0 1.018,1
23:13 21,0 14,6 17,5 67,0 2,5 286 - 0,0 0 1.018,1
23:12 21,0 14,6 17,5 67,0 2,5 288 - 0,0 0 1.018,1
23:11 21,0 14,6 17,5 67,0 2,5 291 - 0,0 0 1.018,1
23:10 21,0 14,7 17,5 67,2 2,4 293 - 0,0 0 1.018,1
23:09 21,1 15,0 17,7 68,0 2,4 296 - 0,0 0 1.018,1
23:08 21,1 15,0 17,7 68,0 2,3 298 - 0,0 0 1.018,1
23:07 21,1 15,0 17,7 68,0 1,9 301 - 0,0 0 1.018,1
23:06 21,1 15,0 17,7 68,0 1,6 302 - 0,0 0 1.018,1
23:05 21,1 15,0 17,7 68,0 1,4 303 - 0,0 0 1.018,1
23:04 21,1 15,0 17,7 68,0 1,2 303 - 0,0 0 1.018,1
23:03 21,1 14,9 17,7 67,7 1,1 303 - 0,0 0 1.018,1
23:02 21,1 14,7 17,6 67,0 0,9 303 - 0,0 0 1.018,1
23:01 21,1 14,7 17,6 67,0 0,9 303 - 0,0 0 1.018,1
23:00 21,1 14,7 17,6 67,0 0,9 303 - 0,0 0 1.018,0
 
22:59 21,1 14,9 17,7 67,9 0,9 303 - 0,0 0 1.018,0
22:58 21,1 15,0 17,7 68,0 0,9 303 - 0,0 0 1.018,1
22:57 21,1 15,0 17,7 68,0 0,9 303 - 0,0 0 1.018,1
22:56 21,1 15,0 17,7 68,0 0,9 303 - 0,0 0 1.018,1
22:55 21,1 15,0 17,7 68,0 0,9 303 - 0,0 0 1.018,1
22:54 21,2 15,1 17,8 68,0 0,9 303 - 0,0 0 1.018,1
22:53 21,2 15,1 17,8 68,0 0,8 303 - 0,0 0 1.018,1
22:52 21,2 15,1 17,8 68,0 0,8 303 - 0,0 0 1.018,1
22:51 21,2 15,1 17,8 68,0 0,6 304 - 0,0 0 1.018,1
22:50 21,2 15,1 17,8 68,0 0,5 304 - 0,0 0 1.018,0
22:49 21,2 15,1 17,8 68,0 0,4 304 - 0,0 0 1.018,0
22:48 21,2 15,1 17,8 68,0 0,5 304 - 0,0 0 1.018,0
22:47 21,2 15,1 17,8 68,0 0,5 304 - 0,0 0 1.018,0
22:46 21,2 15,1 17,8 68,0 0,6 304 - 0,0 0 1.018,0
22:45 21,2 15,1 17,8 68,0 0,5 304 - 0,0 0 1.018,0
22:44 21,2 14,9 17,7 67,4 0,3 304 - 0,0 0 1.018,0
22:43 21,2 14,8 17,7 67,0 0,4 304 - 0,0 0 1.018,0
22:42 21,2 14,8 17,7 67,0 0,6 304 - 0,0 0 1.018,0
22:41 21,2 14,9 17,7 67,1 0,8 303 - 0,0 0 1.018,0
22:40 21,2 15,1 17,8 68,0 1,0 303 - 0,0 0 1.018,0
22:39 21,2 15,1 17,8 68,0 1,1 303 - 0,0 0 1.018,0
22:38 21,2 14,9 17,8 67,5 1,0 303 - 0,0 0 1.018,0
22:37 21,2 14,8 17,7 67,0 1,1 303 - 0,0 0 1.017,9
22:36 21,2 14,8 17,7 67,0 1,3 303 - 0,0 0 1.017,9
22:35 21,2 14,8 17,7 67,0 1,4 303 - 0,0 0 1.017,9
22:34 21,2 14,8 17,6 66,7 1,4 303 - 0,0 0 1.017,9
22:33 21,3 14,7 17,6 66,0 1,3 303 - 0,0 0 1.017,9
22:32 21,3 14,8 17,7 66,6 1,2 303 - 0,0 0 1.017,9
22:31 21,3 14,9 17,8 67,0 1,0 303 - 0,0 0 1.017,9
22:30 21,3 14,9 17,8 67,0 0,7 303 - 0,0 0 1.017,9
22:29 21,3 14,7 17,6 66,1 0,3 303 - 0,0 0 1.017,9
22:28 21,3 14,7 17,6 66,0 0,0 303 - 0,0 0 1.017,9
22:27 21,3 14,7 17,6 66,0 0,0 303 - 0,0 0 1.017,9
22:26 21,3 14,7 17,6 66,0 0,0 303 - 0,0 0 1.017,9
22:25 21,3 14,7 17,6 66,0 0,0 303 - 0,0 0 1.017,9
22:24 21,3 14,7 17,6 66,0 0,0 304 - 0,0 0 1.017,9
22:23 21,3 14,7 17,6 66,0 0,0 304 - 0,0 0 1.018,0
22:22 21,3 14,7 17,6 66,0 0,1 304 - 0,0 0 1.017,9
22:21 21,3 14,7 17,6 66,0 0,3 304 - 0,0 0 1.017,9
22:20 21,3 14,7 17,6 66,0 0,5 304 - 0,0 0 1.017,9
22:19 21,3 14,7 17,6 66,0 0,5 304 - 0,0 0 1.017,9
22:18 21,3 14,5 17,4 65,1 0,5 304 - 0,0 0 1.017,9
22:17 21,3 14,5 17,4 65,0 0,5 304 - 0,0 0 1.017,9
22:16 21,3 14,5 17,4 65,0 0,3 304 - 0,0 0 1.017,9
22:15 21,3 14,5 17,4 65,0 0,4 304 - 0,0 0 1.017,9
22:14 21,3 14,5 17,4 65,0 0,6 303 - 0,0 0 1.017,9
22:13 21,3 14,5 17,4 65,0 0,8 303 - 0,0 0 1.017,9
22:12 21,3 14,5 17,4 65,0 1,0 303 - 0,0 0 1.017,9
22:11 21,3 14,5 17,4 65,0 1,1 302 - 0,0 0 1.017,9
22:10 21,3 14,5 17,4 65,0 1,2 302 - 0,0 4 1.017,9
22:09 21,3 14,5 17,4 65,0 1,3 302 - 0,0 5 1.017,9
22:08 21,3 14,5 17,4 65,0 1,4 302 - 0,0 7 1.017,9
22:07 21,3 14,3 17,3 64,2 1,5 302 - 0,0 7 1.017,9
22:06 21,3 14,2 17,3 64,0 1,5 303 - 0,0 7 1.017,9
22:05 21,3 14,2 17,3 64,0 1,6 303 - 0,0 7 1.017,9
22:04 21,3 14,2 17,3 64,0 1,7 302 - 0,0 7 1.017,9
22:03 21,4 14,3 17,4 64,0 1,7 301 - 0,0 7 1.017,9
22:02 21,4 14,3 17,4 64,0 1,9 299 - 0,0 9 1.017,9
22:01 21,4 14,3 17,4 64,0 2,0 299 - 0,0 10 1.017,9
22:00 21,4 14,3 17,4 64,1 2,1 299 - 0,0 11 1.017,9
 
21:59 21,4 14,5 17,5 65,0 2,1 298 - 0,0 12 1.017,9
21:58 21,4 14,5 17,5 64,6 2,0 298 - 0,0 12 1.017,9
21:57 21,4 14,3 17,4 64,0 2,1 298 - 0,0 12 1.017,9
21:56 21,5 14,4 17,4 64,0 2,2 297 - 0,0 12 1.017,9
21:55 21,5 14,2 17,3 63,2 2,2 297 - 0,0 11 1.017,9
21:54 21,5 14,2 17,3 63,2 2,1 296 - 0,0 11 1.017,8
21:53 21,5 14,4 17,4 64,0 2,0 296 - 0,0 11 1.017,8
21:52 21,6 14,5 17,5 64,0 1,9 296 - 0,0 11 1.017,8
21:51 21,6 14,5 17,5 64,0 1,7 295 - 0,0 11 1.017,8
21:50 21,6 14,3 17,4 63,3 1,6 293 - 0,0 11 1.017,8
21:49 21,6 14,1 17,2 62,2 1,6 290 - 0,0 12 1.017,8
21:48 21,6 14,0 17,2 62,0 1,7 288 - 0,0 12 1.017,8
21:47 21,6 13,9 17,1 61,7 1,8 285 - 0,0 12 1.017,8
21:46 21,6 13,9 17,1 61,5 2,1 284 - 0,0 14 1.017,8
21:45 21,7 14,1 17,3 62,0 2,4 284 - 0,0 14 1.017,8
21:44 21,7 14,1 17,3 62,0 2,6 283 - 0,0 16 1.017,8
21:43 21,7 14,1 17,3 62,0 2,6 282 - 0,0 16 1.017,8
21:42 21,7 14,1 17,3 62,0 2,5 280 - 0,0 17 1.017,8
21:41 21,7 14,1 17,3 62,0 2,3 278 - 0,0 18 1.017,9
21:40 21,7 14,0 17,2 61,6 2,3 276 - 0,0 19 1.017,8
21:39 21,7 14,0 17,2 61,6 2,3 275 - 0,0 19 1.017,8
21:38 21,8 14,4 17,5 62,8 2,2 275 - 0,0 20 1.017,8
21:37 21,8 14,3 17,4 62,3 2,1 275 - 0,0 21 1.017,8
21:36 21,8 14,7 17,7 64,2 2,3 274 - 0,0 21 1.017,8
21:35 21,8 14,9 17,9 65,0 2,5 272 - 0,0 21 1.017,8
21:34 21,8 14,8 17,8 64,5 2,5 269 - 0,0 21 1.017,8
21:33 21,8 14,7 17,7 64,0 2,3 267 - 0,0 21 1.017,8
21:32 21,9 14,8 17,8 64,0 2,2 264 - 0,0 21 1.017,8
21:31 21,9 14,8 17,8 64,1 2,2 262 - 0,0 21 1.017,8
21:30 21,9 15,0 17,9 64,8 2,1 259 - 0,0 21 1.017,8
21:29 22,0 14,9 17,9 64,0 1,9 257 - 0,0 22 1.017,8
21:27 21,9 14,2 17,4 61,7 1,8 254 - 0,0 25 1.017,9
21:26 21,9 14,0 17,3 61,0 1,7 250 - 0,0 24 1.017,9
21:25 21,9 13,8 17,1 60,0 1,8 245 - 0,0 23 1.017,9
21:24 21,9 13,5 16,9 59,0 1,9 242 - 0,0 23 1.017,9
21:23 21,9 13,4 16,9 58,6 2,1 239 - 0,0 23 1.017,9
21:22 21,9 13,3 16,8 58,0 2,2 238 - 0,0 15 1.017,9
21:21 21,9 13,3 16,8 58,0 2,1 237 - 0,0 14 1.017,9
21:20 21,9 13,3 16,8 58,0 1,8 235 - 0,0 14 1.017,9
21:19 21,9 13,3 16,8 58,0 1,6 232 - 0,0 14 1.017,9
21:18 21,9 13,3 16,8 58,0 1,4 228 - 0,0 14 1.017,9
21:17 21,9 13,3 16,8 58,0 1,3 224 - 0,0 14 1.017,9
21:16 21,9 13,3 16,8 58,0 1,2 221 - 0,0 14 1.017,8
21:15 22,0 13,4 16,9 58,0 1,2 219 - 0,0 14 1.017,8
21:14 22,0 13,4 16,9 58,0 1,2 218 - 0,0 14 1.017,8
21:13 22,0 13,3 16,8 57,7 1,3 218 - 0,0 14 1.017,9
21:12 22,0 13,1 16,7 57,0 1,3 219 - 0,0 14 1.017,9
21:11 22,0 13,1 16,7 57,0 1,3 218 - 0,0 14 1.017,9
21:10 22,0 13,1 16,7 57,0 1,2 217 - 0,0 14 1.017,9
21:09 22,0 13,1 16,7 57,0 1,1 216 - 0,0 14 1.017,9
21:08 22,0 13,1 16,7 57,0 1,0 216 - 0,0 14 1.017,9
21:07 22,1 13,2 16,8 57,2 1,1 217 - 0,0 14 1.017,9
21:06 22,1 13,5 16,9 58,0 1,1 217 - 0,0 14 1.017,9
21:05 22,1 13,3 16,9 57,6 1,2 216 - 0,0 14 1.017,9
21:04 22,1 13,2 16,8 57,0 1,3 215 - 0,0 14 1.017,9
21:03 22,1 13,2 16,8 57,0 1,4 215 - 0,0 14 1.017,9
21:02 22,1 13,2 16,8 57,0 1,5 215 - 0,0 15 1.017,9
21:01 22,1 13,2 16,8 57,0 1,8 214 - 0,0 16 1.017,9
21:00 22,1 13,2 16,8 57,0 1,8 215 - 0,0 18 1.017,9
 
20:59 22,1 13,2 16,8 57,0 1,7 217 - 0,0 21 1.017,9
20:58 22,1 13,2 16,8 57,0 1,6 219 - 0,0 25 1.017,9
20:57 22,1 13,2 16,8 57,0 1,6 220 - 0,0 29 1.017,9
20:56 22,1 13,2 16,8 57,0 1,6 221 - 0,0 35 1.017,9
20:55 22,1 13,2 16,8 57,0 1,7 221 - 0,0 42 1.017,9
20:54 22,1 13,2 16,8 57,0 1,9 220 - 0,0 48 1.017,9
20:53 22,1 13,2 16,8 57,0 2,1 218 - 0,0 58 1.017,9
20:52 22,1 13,4 16,9 57,7 2,2 217 - 0,0 61 1.018,0
20:51 22,1 13,5 16,9 58,0 2,4 217 - 0,0 64 1.018,0
20:50 22,1 13,5 16,9 58,0 2,4 218 - 0,0 68 1.018,0
20:49 22,1 13,5 16,9 58,0 2,3 219 - 0,0 69 1.018,0
20:48 22,1 13,5 16,9 58,0 2,1 221 - 0,0 68 1.018,0
20:47 22,1 13,5 16,9 58,0 2,0 223 - 0,0 65 1.018,0
20:46 22,1 13,5 16,9 58,0 2,0 224 - 0,0 62 1.018,0
20:45 22,1 13,5 16,9 58,0 2,0 224 - 0,0 59 1.018,0
20:44 22,1 13,7 17,1 59,0 1,9 222 - 0,0 53 1.018,0
20:43 22,1 13,7 17,1 59,0 1,8 219 - 0,0 49 1.018,0
20:42 22,1 13,7 17,1 59,0 1,8 217 - 0,0 48 1.018,0
20:41 22,1 13,9 17,2 59,6 1,7 216 - 0,0 46 1.018,0
20:40 22,1 14,0 17,3 60,0 1,5 215 - 0,0 46 1.018,1
20:39 22,2 14,1 17,4 60,0 1,5 216 - 0,0 46 1.018,1
20:38 22,2 14,1 17,4 60,1 1,6 218 - 0,0 47 1.018,0
20:37 22,2 14,3 17,6 61,0 1,6 220 - 0,0 48 1.018,0
20:36 22,2 14,3 17,6 61,0 1,6 223 - 0,0 51 1.018,1
20:35 22,2 14,3 17,6 61,0 1,7 225 - 0,0 53 1.018,1
20:34 22,2 14,5 17,7 61,7 1,7 226 - 0,0 57 1.018,1
20:33 22,2 14,6 17,7 62,0 1,7 227 - 0,0 61 1.018,1
20:32 22,2 14,6 17,7 62,0 1,8 227 - 0,0 65 1.018,1
20:31 22,2 14,5 17,7 61,7 2,0 228 - 0,0 68 1.018,1
20:30 22,3 14,4 17,6 61,0 2,2 228 - 0,0 69 1.018,1
20:29 22,3 14,4 17,6 61,0 2,3 228 - 0,0 69 1.018,1
20:28 22,3 14,4 17,6 61,0 2,3 230 - 0,0 67 1.018,1
20:27 22,3 14,4 17,6 61,0 2,3 232 - 0,0 67 1.018,1
20:26 22,3 14,4 17,6 61,0 2,2 233 - 0,0 67 1.018,1
20:25 22,3 14,4 17,6 61,0 2,2 233 - 0,0 68 1.018,1
20:24 22,3 14,5 17,7 61,5 2,2 234 - 0,0 70 1.018,1
20:23 22,4 14,8 17,9 62,0 2,1 235 - 0,0 76 1.018,1
20:22 22,4 14,8 17,9 62,0 2,0 235 - 0,0 81 1.018,1
20:21 22,4 14,8 17,9 62,0 2,1 235 - 0,0 88 1.018,1
20:20 22,4 14,8 17,9 62,0 2,1 235 - 0,0 93 1.018,1
20:19 22,4 14,8 17,9 62,0 1,9 236 - 0,0 102 1.018,1
20:18 22,4 14,8 17,9 62,0 1,5 237 - 0,0 147 1.018,1
20:17 22,4 14,8 17,9 62,0 1,3 237 - 0,0 97 1.018,2
20:16 22,4 14,8 17,9 62,0 1,4 239 - 0,0 90 1.018,2
20:15 22,4 14,8 17,9 62,0 1,8 242 - 0,0 88 1.018,2
20:14 22,4 14,8 17,9 62,0 1,9 245 - 0,0 97 1.018,2
20:13 22,5 14,9 18,0 62,0 1,5 247 - 0,0 99 1.018,3
20:12 22,5 14,7 17,9 61,5 1,2 250 - 0,0 91 1.018,2
20:11 22,5 14,5 17,7 60,4 1,2 252 - 0,0 78 1.018,2
20:10 22,5 14,3 17,6 60,0 1,3 254 - 0,0 77 1.018,2
20:09 22,6 14,5 17,8 60,2 1,5 256 - 0,0 75 1.018,3
20:08 22,6 14,7 17,9 61,0 1,7 257 - 0,0 74 1.018,3
20:07 22,7 14,7 17,9 60,7 1,6 257 - 0,0 75 1.018,3
20:06 22,8 14,6 17,9 60,0 1,4 259 - 0,0 74 1.018,3
20:05 22,8 14,6 17,9 60,0 1,3 262 - 0,0 76 1.018,3
20:04 22,9 14,7 18,0 60,0 1,5 264 - 0,0 79 1.018,3
20:03 23,1 15,2 18,3 61,0 1,6 264 - 0,0 88 1.018,3
20:02 23,1 15,1 18,3 60,8 1,4 265 - 0,0 92 1.018,3
20:01 23,2 14,9 18,2 59,6 1,2 266 - 0,0 85 1.018,3
20:00 23,3 14,5 18,0 57,9 1,2 266 - 0,0 79 1.018,3
 
19:59 23,4 14,4 17,9 57,0 1,3 266 - 0,0 79 1.018,3
19:58 23,6 14,4 17,9 56,2 1,4 264 - 0,0 75 1.018,2
19:57 23,7 14,3 17,9 55,7 1,4 261 - 0,0 73 1.018,2
19:56 23,8 14,2 17,8 54,8 1,4 257 - 0,0 72 1.018,3
19:55 23,8 13,8 17,6 53,6 1,4 250 - 0,0 74 1.018,3
19:54 23,9 13,7 17,5 53,0 1,5 244 - 0,0 81 1.018,3
19:53 23,9 13,7 17,5 53,0 1,6 238 - 0,0 148 1.018,3
19:52 23,9 13,7 17,5 53,0 1,4 232 - 0,0 90 1.018,3
19:51 23,9 13,7 17,5 52,9 0,9 226 - 0,0 75 1.018,3
19:50 24,0 13,5 17,4 52,0 0,6 220 - 0,0 93 1.018,3
19:49 24,0 13,5 17,4 52,0 0,7 216 - 0,0 181 1.018,3
19:48 24,0 13,5 17,4 52,0 1,0 212 - 0,0 213 1.018,3
19:47 24,1 13,6 17,5 52,0 1,4 211 - 0,0 251 1.018,3
19:46 24,1 13,9 17,7 52,9 1,2 211 - 0,0 272 1.018,3
19:45 24,1 13,9 17,7 52,9 0,8 213 - 0,0 276 1.018,3
19:44 24,0 13,5 17,4 52,0 0,7 214 - 0,0 270 1.018,3
19:43 24,0 13,7 17,5 52,5 0,8 215 - 0,0 276 1.018,3
19:42 23,9 13,9 17,7 53,6 0,5 216 - 0,0 284 1.018,3
19:41 23,8 13,7 17,5 53,3 0,3 214 - 0,0 312 1.018,3
19:40 23,7 13,6 17,4 53,0 0,2 207 - 0,0 296 1.018,3
19:39 23,7 13,5 17,3 52,8 0,3 199 - 0,0 284 1.018,3
19:38 23,7 13,4 17,3 52,4 0,6 194 - 0,0 182 1.018,3
19:37 23,8 13,6 17,5 53,0 0,8 192 - 0,0 118 1.018,3
19:36 23,9 13,6 17,4 52,4 0,7 190 - 0,0 111 1.018,3
19:35 23,9 13,4 17,3 52,0 0,6 189 - 0,0 109 1.018,3
19:34 23,9 13,7 17,5 52,9 0,6 188 - 0,0 138 1.018,3
19:33 23,9 13,7 17,5 53,0 0,5 187 - 0,0 175 1.018,3
19:32 23,8 13,6 17,5 53,0 0,3 186 - 0,0 148 1.018,3
19:31 23,8 13,8 17,5 53,5 0,1 183 - 0,0 283 1.018,3
19:30 23,6 13,8 17,5 54,0 0,1 178 - 0,0 309 1.018,3
19:29 23,4 13,6 17,3 54,0 0,1 174 - 0,0 248 1.018,3
19:28 23,3 13,5 17,2 54,0 0,1 181 - 0,0 67 1.018,3
19:27 23,3 13,4 17,2 53,8 0,4 188 - 0,0 67 1.018,3
19:26 23,3 13,2 17,0 53,0 0,7 191 - 0,0 67 1.018,3
19:25 23,3 13,2 17,0 53,0 0,8 191 - 0,0 67 1.018,3
19:24 23,3 13,2 17,0 53,0 0,6 191 - 0,0 60 1.018,3
19:23 23,4 13,3 17,1 53,0 0,4 192 - 0,0 61 1.018,3
19:22 23,4 13,0 17,0 52,2 0,7 193 - 0,0 63 1.018,3
19:21 23,4 13,3 17,1 53,0 1,3 192 - 0,0 64 1.018,3
19:20 23,4 13,3 17,1 53,0 1,7 192 - 0,0 68 1.018,3
19:19 23,4 13,5 17,2 53,6 1,4 194 - 0,0 75 1.018,3
19:18 23,4 13,6 17,3 54,0 0,8 198 - 0,0 251 1.018,3
19:17 23,4 13,6 17,3 54,0 0,7 202 - 0,0 260 1.018,3
19:16 23,4 13,6 17,3 54,0 0,8 204 - 0,0 260 1.018,3
19:15 23,3 13,4 17,2 53,8 0,9 201 - 0,0 299 1.018,3
19:14 23,3 13,2 17,0 53,0 0,8 201 - 0,0 168 1.018,3
19:13 23,3 13,2 17,0 53,0 0,8 203 - 0,0 116 1.018,3
19:12 23,4 13,3 17,1 53,0 1,3 203 - 0,0 114 1.018,3
19:11 23,4 13,0 17,0 52,2 1,8 202 - 0,0 123 1.018,4
19:10 23,5 13,1 17,1 52,2 2,2 203 - 0,0 130 1.018,4
19:09 23,5 13,4 17,2 53,0 2,1 206 - 0,0 132 1.018,4
19:08 23,6 13,5 17,3 53,0 2,1 208 - 0,0 113 1.018,5
19:07 23,7 13,6 17,4 53,0 1,9 209 - 0,0 130 1.018,5
19:06 23,7 13,3 17,2 52,1 1,7 209 - 0,0 141 1.018,5
19:05 23,8 13,4 17,3 52,0 1,7 210 - 0,0 142 1.018,5
19:04 23,8 13,4 17,3 52,0 1,6 208 - 0,0 144 1.018,5
19:03 23,8 13,4 17,3 52,3 1,6 206 - 0,0 143 1.018,5
19:02 23,8 13,8 17,5 53,5 1,3 205 - 0,0 142 1.018,4
19:01 23,8 13,9 17,6 54,0 1,2 206 - 0,0 174 1.018,4
19:00 23,8 13,9 17,6 54,0 1,3 211 - 0,0 432 1.018,5
 
18:59 23,7 14,1 17,7 54,9 1,6 219 - 0,0 430 1.018,5
18:58 23,6 14,0 17,7 55,0 1,4 229 - 0,0 445 1.018,5
18:57 23,6 14,0 17,7 55,0 1,2 239 - 0,0 410 1.018,5
18:56 23,6 13,9 17,6 54,6 1,3 250 - 0,0 417 1.018,6
18:55 23,7 14,0 17,7 54,6 1,3 262 - 0,0 344 1.018,6
18:54 23,7 13,9 17,6 54,1 1,0 274 - 0,0 413 1.018,6
18:53 23,7 14,1 17,7 54,9 0,9 285 - 0,0 389 1.018,6
18:52 23,7 14,1 17,7 55,0 0,9 297 - 0,0 376 1.018,6
18:51 23,7 14,1 17,7 55,0 0,8 305 - 0,0 459 1.018,5
18:50 23,7 14,1 17,7 55,0 0,9 309 - 0,0 478 1.018,6
18:49 23,6 14,0 17,7 55,0 0,9 311 - 0,0 460 1.018,6
18:48 23,6 14,3 17,8 55,8 0,9 312 - 0,0 438 1.018,6
18:47 23,6 14,3 17,9 56,0 0,9 313 - 0,0 450 1.018,5
18:46 23,5 14,2 17,8 56,0 0,9 314 - 0,0 476 1.018,5
18:45 23,4 14,1 17,7 56,0 0,9 314 - 0,0 497 1.018,6
18:44 23,4 14,1 17,7 56,0 1,0 314 - 0,0 506 1.018,6
18:43 23,3 14,2 17,7 56,7 1,1 314 - 0,0 506 1.018,6
18:42 23,2 14,2 17,7 57,0 1,1 314 - 0,0 506 1.018,6
18:41 23,1 14,2 17,7 57,2 1,1 314 - 0,0 498 1.018,6
18:40 23,1 14,4 17,8 58,0 1,3 313 - 0,0 490 1.018,7
18:39 23,1 14,4 17,8 58,0 1,2 312 - 0,0 490 1.018,7
18:38 23,0 14,3 17,7 58,0 0,9 310 - 0,0 490 1.018,7
18:37 23,0 14,5 17,8 58,7 0,5 308 - 0,0 489 1.018,7
18:36 22,8 14,6 17,9 59,9 0,5 307 - 0,0 491 1.018,7
18:35 22,7 14,5 17,8 60,0 0,7 307 - 0,0 390 1.018,8
18:34 22,6 14,4 17,7 60,0 1,0 309 - 0,0 248 1.018,8
18:33 22,6 14,3 17,7 59,6 1,2 313 - 0,0 248 1.018,8
18:32 22,6 14,3 17,7 59,6 1,4 315 - 0,0 253 1.018,8
18:31 22,6 14,4 17,7 60,0 1,6 313 - 0,0 325 1.018,8
18:30 22,6 14,4 17,7 60,0 1,6 308 - 0,0 267 1.018,8
18:29 22,6 14,2 17,5 58,9 1,5 300 - 0,0 267 1.018,8
18:28 22,7 13,9 17,4 57,7 1,5 291 - 0,0 240 1.018,8
18:27 22,8 13,7 17,3 56,5 1,7 280 - 0,0 254 1.018,8
18:26 22,8 13,6 17,2 56,0 1,5 268 - 0,0 180 1.018,8
18:25 22,9 13,7 17,3 56,0 1,1 258 - 0,0 176 1.018,8
18:24 22,8 13,6 17,2 56,0 0,7 252 - 0,0 199 1.018,8
18:23 22,8 13,6 17,2 56,0 0,4 248 - 0,0 218 1.018,8
18:22 22,8 13,6 17,2 56,0 0,1 250 - 0,0 226 1.018,8
18:21 22,8 13,6 17,2 56,0 0,1 272 - 0,0 224 1.018,8
18:20 22,8 13,6 17,2 56,0 0,3 300 - 0,0 212 1.018,8
18:19 22,8 13,6 17,2 56,0 0,4 309 - 0,0 199 1.018,8
18:18 22,8 13,6 17,2 56,0 0,3 310 - 0,0 182 1.018,8
18:17 22,8 13,3 17,0 55,0 0,1 311 - 0,0 154 1.018,8
18:16 22,8 13,3 17,0 55,0 0,0 314 - 0,0 124 1.018,8
18:15 22,8 13,3 17,0 55,0 0,0 322 - 0,0 102 1.018,9
18:14 22,9 13,4 17,1 55,0 0,1 329 - 0,0 84 1.018,9
18:13 22,9 13,4 17,1 55,0 0,2 330 - 0,0 78 1.018,9
18:12 22,9 13,4 17,1 55,0 0,4 330 - 0,0 74 1.018,9
18:11 22,9 13,4 17,1 55,2 0,6 330 - 0,0 74 1.018,9
18:10 22,9 13,7 17,3 56,0 0,7 330 - 0,0 78 1.019,0
18:09 22,9 13,7 17,3 56,0 0,5 330 - 0,0 81 1.019,0
18:08 22,9 13,7 17,3 56,0 0,3 330 - 0,0 87 1.019,0
18:07 22,9 13,7 17,3 56,0 0,1 330 - 0,0 91 1.019,0
18:06 22,9 13,6 17,2 55,9 0,1 330 - 0,0 90 1.019,0
18:05 22,9 13,4 17,1 55,0 0,2 329 - 0,0 95 1.019,0
18:04 22,9 13,4 17,1 55,0 0,5 329 - 0,0 106 1.019,0
18:03 22,9 13,4 17,1 55,0 0,6 328 - 0,0 118 1.019,0
18:02 22,9 13,4 17,1 55,0 0,6 327 - 0,0 123 1.019,0
18:01 22,9 13,4 17,1 55,0 0,5 326 - 0,0 121 1.019,0
18:00 22,9 13,4 17,1 55,1 0,5 324 - 0,0 120 1.019,0
 
17:59 22,9 13,7 17,3 56,0 0,7 324 - 0,0 122 1.019,1
17:58 22,9 13,7 17,3 56,0 0,9 324 - 0,0 133 1.019,1
17:57 22,9 13,9 17,4 56,7 1,1 324 - 0,0 149 1.019,1
17:56 23,0 14,0 17,5 57,0 1,1 326 - 0,0 162 1.019,0
17:55 23,0 14,0 17,5 57,0 1,2 327 - 0,0 167 1.019,0
17:54 23,0 14,3 17,7 58,0 1,2 329 - 0,0 171 1.019,0
17:53 23,0 14,3 17,7 58,0 1,2 331 - 0,0 186 1.019,0
17:52 23,0 14,3 17,7 58,0 1,2 332 - 0,0 205 1.019,1
17:51 22,9 14,2 17,6 58,0 1,2 332 - 0,0 228 1.019,1
17:50 22,9 14,0 17,5 57,3 1,0 332 - 0,0 267 1.019,1
17:49 22,8 14,1 17,5 57,9 0,9 330 - 0,0 294 1.019,1
17:48 22,8 14,4 17,7 59,1 1,0 328 - 0,0 306 1.019,1
17:47 22,7 14,6 17,9 60,3 1,2 325 - 0,0 357 1.019,2
17:46 22,6 14,6 17,8 60,6 1,2 322 - 0,0 366 1.019,2
17:45 22,6 14,4 17,7 60,0 1,2 320 - 0,0 363 1.019,2
17:44 22,6 14,4 17,7 60,0 1,2 318 - 0,0 295 1.019,2
17:43 22,6 14,4 17,7 60,0 1,3 318 - 0,0 289 1.019,2
17:42 22,6 14,2 17,6 59,1 1,3 319 - 0,0 275 1.019,2
17:41 22,5 14,1 17,5 59,0 1,4 321 - 0,0 257 1.019,3
17:40 22,5 14,2 17,5 59,5 1,4 322 - 0,0 240 1.019,2
17:39 22,5 14,3 17,6 60,0 1,4 323 - 0,0 223 1.019,3
17:38 22,5 14,3 17,6 60,0 1,5 325 - 0,0 236 1.019,3
17:37 22,6 14,5 17,7 60,1 1,5 326 - 0,0 246 1.019,3
17:36 22,6 14,7 17,9 61,0 1,5 327 - 0,0 261 1.019,2
17:35 22,5 14,5 17,8 60,7 1,5 327 - 0,0 335 1.019,2
17:34 22,5 14,3 17,6 60,0 1,5 328 - 0,0 370 1.019,2
17:33 22,5 14,3 17,6 60,0 1,5 327 - 0,0 305 1.019,3
17:32 22,5 14,2 17,5 59,3 1,6 325 - 0,0 232 1.019,3
17:31 22,5 14,1 17,5 59,0 1,5 321 - 0,0 232 1.019,3
17:30 22,6 13,9 17,4 58,0 1,5 318 - 0,0 232 1.019,3
17:29 22,6 13,8 17,3 57,7 1,5 317 - 0,0 219 1.019,3
17:28 22,6 13,5 17,1 56,5 1,4 315 - 0,0 207 1.019,3
17:26 22,6 13,7 17,2 57,0 1,3 316 - 0,0 229 1.019,3
17:25 22,6 13,7 17,2 57,0 1,3 318 - 0,0 261 1.019,3
17:24 22,6 13,7 17,2 57,0 1,4 320 - 0,0 277 1.019,3
17:23 22,5 13,6 17,1 57,0 1,5 321 - 0,0 284 1.019,3
17:22 22,4 13,5 17,0 57,0 1,5 319 - 0,0 303 1.019,3
17:21 22,4 13,5 17,0 57,0 1,4 316 - 0,0 282 1.019,3
17:20 22,4 13,7 17,2 57,8 1,2 310 - 0,0 283 1.019,3
17:19 22,4 13,5 17,0 57,0 1,2 300 - 0,0 293 1.019,3
17:18 22,4 13,2 16,8 56,0 1,2 290 - 0,0 301 1.019,3
17:17 22,4 13,3 16,9 56,4 1,3 284 - 0,0 304 1.019,3
17:16 22,4 13,8 17,2 58,1 1,3 284 - 0,0 380 1.019,3
17:15 22,4 14,0 17,4 59,0 1,4 287 - 0,0 388 1.019,4
17:14 22,3 13,7 17,1 58,2 1,4 291 - 0,0 391 1.019,4
17:13 22,2 13,5 17,0 58,0 1,4 297 - 0,0 382 1.019,4
17:12 22,2 13,6 17,1 58,3 1,4 303 - 0,0 380 1.019,4
17:11 22,2 13,9 17,3 59,4 1,5 306 - 0,0 330 1.019,5
17:10 22,2 13,9 17,3 59,5 1,7 307 - 0,0 298 1.019,5
17:09 22,2 13,8 17,2 59,0 1,9 308 - 0,0 297 1.019,5
17:08 22,2 13,8 17,2 59,0 2,0 309 - 0,0 297 1.019,5
17:07 22,2 14,3 17,5 60,8 1,8 310 - 0,0 291 1.019,6
17:06 22,2 14,1 17,4 60,0 1,6 311 - 0,0 287 1.019,6
17:05 22,2 14,1 17,4 60,0 1,5 311 - 0,0 275 1.019,6
17:04 22,2 14,1 17,4 60,0 1,4 309 - 0,0 251 1.019,6
17:03 22,3 14,2 17,5 60,0 1,3 305 - 0,0 227 1.019,7
17:02 22,3 13,7 17,2 58,3 1,4 301 - 0,0 229 1.019,7
17:01 22,4 13,7 17,2 58,0 1,5 296 - 0,0 218 1.019,7
17:00 22,4 13,7 17,1 57,7 1,6 293 - 0,0 208 1.019,7
 
16:59 22,5 13,6 17,1 57,0 1,6 291 - 0,0 233 1.019,6
16:58 22,6 13,7 17,2 57,0 1,5 291 - 0,0 240 1.019,6
16:57 22,6 13,7 17,2 57,0 1,4 291 - 0,0 258 1.019,6
16:56 22,7 14,0 17,4 57,9 1,4 292 - 0,0 281 1.019,6
16:55 22,7 13,7 17,2 56,8 1,4 293 - 0,0 333 1.019,6
16:54 22,7 13,5 17,1 56,0 1,2 293 - 0,0 373 1.019,6
16:53 22,7 13,5 17,1 56,0 1,1 291 - 0,0 373 1.019,6
16:52 22,6 13,4 17,0 56,0 1,1 285 - 0,0 638 1.019,6
16:51 22,6 13,6 17,2 56,8 1,3 278 - 0,0 652 1.019,6
16:50 22,6 13,4 17,0 56,1 1,3 272 - 0,0 652 1.019,6
16:49 22,6 13,3 17,0 55,8 1,3 267 - 0,0 652 1.019,6
16:48 22,6 13,1 16,8 55,0 1,5 260 - 0,0 425 1.019,6
16:47 22,7 12,9 16,7 54,0 1,8 252 - 0,0 327 1.019,6
16:46 22,8 12,5 16,5 52,4 2,0 246 - 0,0 323 1.019,6
16:45 22,8 12,4 16,4 52,0 2,2 241 - 0,0 296 1.019,6
16:44 22,9 12,6 16,5 52,1 2,6 235 - 0,0 278 1.019,6
16:43 23,0 12,9 16,8 53,0 2,2 229 - 0,0 279 1.019,6
16:42 23,0 12,9 16,8 53,0 1,4 226 - 0,0 284 1.019,6
16:41 23,0 12,9 16,8 53,0 1,1 226 - 0,0 283 1.019,6
16:40 23,1 13,0 16,9 53,0 1,4 227 - 0,0 332 1.019,6
16:39 23,1 13,0 16,9 53,0 1,6 226 - 0,0 315 1.019,6
16:38 23,1 12,7 16,7 52,1 1,5 226 - 0,0 316 1.019,6
16:37 23,0 12,8 16,7 52,5 1,2 226 - 0,0 356 1.019,6
16:36 22,9 13,1 16,9 54,0 1,3 223 - 0,0 778 1.019,6
16:35 22,8 13,0 16,8 54,0 1,2 216 - 0,0 909 1.019,6
16:34 22,5 12,7 16,6 54,0 0,9 210 - 0,0 818 1.019,6
16:33 22,4 12,6 16,5 54,0 0,7 208 - 0,0 299 1.019,6
16:32 22,2 12,5 16,3 54,0 0,7 205 - 0,0 299 1.019,6
16:31 22,2 12,5 16,3 54,0 1,1 200 - 0,0 279 1.019,7
16:30 22,2 12,5 16,3 54,0 1,6 197 - 0,0 247 1.019,6
16:29 22,2 12,6 16,4 54,6 2,0 198 - 0,0 221 1.019,6
16:28 22,3 12,6 16,5 54,3 1,7 201 - 0,0 202 1.019,7
16:27 22,3 12,8 16,6 54,9 1,4 204 - 0,0 190 1.019,7
16:26 22,3 12,6 16,4 54,1 1,7 205 - 0,0 183 1.019,6
16:25 22,4 12,6 16,5 54,0 2,2 205 - 0,0 182 1.019,6
16:24 22,4 12,6 16,5 54,0 2,3 205 - 0,0 185 1.019,7
16:23 22,4 12,6 16,5 54,0 1,9 206 - 0,0 190 1.019,6
16:22 22,4 12,9 16,6 54,8 1,6 207 - 0,0 194 1.019,6
16:21 22,5 12,8 16,6 54,2 1,3 207 - 0,0 203 1.019,7
16:20 22,5 12,7 16,6 54,0 1,4 211 - 0,0 215 1.019,7
16:19 22,5 12,7 16,6 54,0 1,7 217 - 0,0 230 1.019,7
16:18 22,5 12,7 16,6 54,0 1,8 222 - 0,0 246 1.019,7
16:17 22,5 12,6 16,5 53,4 1,5 221 - 0,0 255 1.019,7
16:16 22,4 12,6 16,4 53,8 1,0 220 - 0,0 262 1.019,7
16:15 22,3 12,5 16,4 54,0 0,9 219 - 0,0 262 1.019,7
16:14 22,3 12,5 16,4 53,8 1,0 214 - 0,0 250 1.019,7
16:13 22,3 12,3 16,2 53,0 1,1 205 - 0,0 240 1.019,7
16:12 22,3 12,3 16,2 53,0 1,3 200 - 0,0 251 1.019,7
16:11 22,3 12,3 16,2 53,0 1,7 198 - 0,0 271 1.019,7
16:10 22,3 12,3 16,2 53,0 2,1 197 - 0,0 250 1.019,7
16:09 22,3 12,8 16,5 54,8 2,2 196 - 0,0 250 1.019,7
16:08 22,2 12,4 16,3 53,8 1,9 197 - 0,0 250 1.019,7
16:07 22,2 12,2 16,1 53,0 1,7 201 - 0,0 250 1.019,7
16:06 22,2 12,2 16,1 53,0 1,8 206 - 0,0 231 1.019,7
16:05 22,2 12,2 16,1 53,0 1,9 210 - 0,0 224 1.019,7
16:04 22,2 12,2 16,1 53,0 1,9 213 - 0,0 220 1.019,7
16:03 22,3 12,2 16,2 52,9 1,8 215 - 0,0 219 1.019,7
16:02 22,3 12,0 16,1 52,2 1,8 217 - 0,0 224 1.019,7
16:01 22,3 12,3 16,2 53,0 2,2 217 - 0,0 235 1.019,7
16:00 22,4 12,4 16,3 53,0 2,3 215 - 0,0 248 1.019,8
 
15:59 22,4 12,2 16,2 52,4 2,3 214 - 0,0 256 1.019,8
15:58 22,5 12,2 16,2 52,0 2,2 213 - 0,0 259 1.019,8
15:57 22,5 12,2 16,2 52,0 2,2 210 - 0,0 257 1.019,9
15:56 22,6 12,2 16,3 52,0 1,8 208 - 0,0 251 1.019,9
15:55 22,6 12,2 16,3 52,0 1,6 206 - 0,0 256 1.019,9
15:54 22,7 12,3 16,4 52,0 2,0 205 - 0,0 264 1.019,9
15:53 22,8 12,4 16,4 52,0 2,5 204 - 0,0 272 1.019,9
15:52 22,9 12,5 16,5 52,0 2,4 205 - 0,0 279 1.019,9
15:51 22,9 12,8 16,7 52,9 2,1 206 - 0,0 288 1.019,9
15:50 22,9 12,5 16,5 52,0 2,0 204 - 0,0 406 1.019,9
15:49 22,8 12,4 16,4 52,0 1,8 200 - 0,0 478 1.019,8
15:48 22,8 12,4 16,4 52,0 1,5 195 - 0,0 478 1.019,8
15:47 22,8 12,4 16,4 52,0 1,5 191 - 0,0 477 1.019,9
15:46 22,6 12,2 16,3 52,0 1,5 185 - 0,0 475 1.019,9
15:45 22,5 12,2 16,2 52,2 1,3 180 - 0,0 475 1.019,8
15:44 22,4 12,4 16,4 53,3 1,1 181 - 0,0 504 1.019,8
15:43 22,3 12,4 16,3 53,6 1,0 188 - 0,0 377 1.019,8
15:42 22,2 12,0 16,0 52,4 1,5 195 - 0,0 341 1.019,8
15:41 22,3 12,2 16,2 52,8 2,3 202 - 0,0 341 1.019,9
15:40 22,3 12,0 16,1 52,2 2,7 206 - 0,0 329 1.019,9
15:39 22,3 12,0 16,0 52,0 2,3 206 - 0,0 292 1.019,9
15:38 22,3 12,1 16,1 52,3 1,9 206 - 0,0 265 1.019,9
15:37 22,3 12,1 16,1 52,6 2,1 208 - 0,0 252 1.020,0
15:36 22,4 12,1 16,1 52,0 3,2 210 - 0,0 258 1.019,9
15:35 22,5 12,4 16,3 52,8 3,5 211 - 0,0 276 1.019,9
15:34 22,5 12,4 16,4 53,0 2,9 211 - 0,0 296 1.020,0
15:33 22,5 12,2 16,2 52,0 1,9 212 - 0,0 309 1.020,0
15:32 22,6 12,2 16,2 51,7 1,6 213 - 0,0 313 1.020,0
15:31 22,7 12,2 16,3 51,5 2,0 211 - 0,0 309 1.020,0
15:30 22,7 12,5 16,5 52,6 2,7 210 - 0,0 331 1.020,0
15:29 22,8 12,7 16,6 53,0 2,8 212 - 0,0 351 1.019,9
15:28 22,8 12,7 16,6 53,0 2,6 215 - 0,0 405 1.020,0
15:27 22,8 12,4 16,4 52,0 2,6 220 - 0,0 403 1.020,0
15:26 22,9 12,5 16,5 52,0 2,7 225 - 0,0 403 1.020,0
15:25 22,9 12,5 16,5 52,0 2,9 228 - 0,0 403 1.020,0
15:24 22,9 12,7 16,7 52,7 3,1 227 - 0,0 1.034 1.020,0
15:23 22,8 12,5 16,5 52,2 3,1 225 - 0,0 1.054 1.020,0
15:22 22,8 12,7 16,6 52,9 2,8 224 - 0,0 787 1.020,0
15:21 22,8 12,4 16,4 52,0 2,4 223 - 0,0 431 1.020,0
15:20 22,8 12,3 16,4 51,7 1,9 219 - 0,0 431 1.020,1
15:19 22,7 12,0 16,2 51,0 1,4 216 - 0,0 438 1.020,2
15:18 22,6 12,0 16,1 51,0 1,3 217 - 0,0 583 1.020,2
15:17 22,6 12,0 16,1 51,0 1,6 216 - 0,0 578 1.020,2
15:16 22,5 11,9 16,0 51,0 1,8 209 - 0,0 490 1.020,2
15:15 22,4 11,9 16,0 51,3 1,6 202 - 0,0 420 1.020,2
15:14 22,3 12,0 16,0 52,0 1,2 200 - 0,0 420 1.020,1
15:13 22,3 12,1 16,1 52,6 1,8 201 - 0,0 420 1.020,1
15:12 22,3 12,3 16,2 53,0 2,1 203 - 0,0 420 1.020,1
15:11 22,3 12,3 16,2 53,0 2,7 206 - 0,0 399 1.020,1
15:10 22,3 12,3 16,2 53,0 2,6 211 - 0,0 429 1.020,1
15:09 22,2 12,1 16,1 52,8 2,3 216 - 0,0 526 1.020,1
15:08 22,2 11,9 16,0 52,0 2,0 219 - 0,0 526 1.020,1
15:07 22,2 12,1 16,1 52,6 2,3 219 - 0,0 526 1.020,1
15:06 22,1 12,1 16,1 53,0 2,5 217 - 0,0 526 1.020,1
15:05 22,1 11,9 15,9 52,3 2,2 216 - 0,0 526 1.020,1
15:04 22,0 12,2 16,1 53,8 2,0 217 - 0,0 557 1.020,1
15:03 22,0 12,0 16,0 53,0 2,2 221 - 0,0 512 1.020,1
15:02 22,0 12,0 16,0 53,0 2,6 223 - 0,0 471 1.020,1
15:01 22,1 11,9 15,9 52,4 3,0 222 - 0,0 483 1.020,2
 
14:59 22,2 11,6 15,8 51,2 3,0 220 - 0,0 481 1.020,2
14:58 22,2 11,8 15,9 51,9 2,5 217 - 0,0 429 1.020,3
14:57 22,2 11,6 15,8 51,0 2,5 215 - 0,0 386 1.020,3
14:56 22,2 11,6 15,8 51,0 3,0 210 - 0,0 578 1.020,3
14:55 22,2 11,8 15,9 51,6 3,0 208 - 0,0 603 1.020,2
14:54 22,2 11,6 15,8 51,2 2,5 210 - 0,0 515 1.020,2
14:53 22,2 11,6 15,8 51,0 2,3 214 - 0,0 520 1.020,3
14:52 22,2 11,5 15,7 50,6 2,7 214 - 0,0 621 1.020,3
14:51 22,3 11,4 15,7 50,0 3,1 211 - 0,0 698 1.020,3
14:50 22,3 11,2 15,6 49,5 2,9 210 - 0,0 707 1.020,3
14:49 22,4 11,3 15,7 49,6 2,8 209 - 0,0 594 1.020,3
14:48 22,4 11,3 15,6 49,3 2,5 207 - 0,0 587 1.020,3
14:47 22,4 11,2 15,6 49,1 2,1 204 - 0,0 587 1.020,3
14:46 22,3 11,5 15,8 50,4 1,8 204 - 0,0 587 1.020,3
14:45 22,2 11,8 15,9 51,7 1,6 205 - 0,0 738 1.020,3
14:44 22,1 11,3 15,6 50,5 1,6 203 - 0,0 802 1.020,3
14:43 21,9 11,2 15,5 50,7 1,8 204 - 0,0 540 1.020,3
14:42 21,9 11,1 15,4 50,2 2,1 206 - 0,0 526 1.020,3
14:41 21,9 11,3 15,5 51,0 2,2 208 - 0,0 508 1.020,4
14:40 21,9 11,3 15,5 51,0 2,4 210 - 0,0 452 1.020,4
14:39 22,0 11,4 15,6 51,0 2,5 213 - 0,0 372 1.020,4
14:38 22,1 11,5 15,7 51,0 2,5 217 - 0,0 321 1.020,4
14:37 22,2 11,4 15,7 50,4 2,5 219 - 0,0 308 1.020,4
14:36 22,3 11,6 15,8 50,8 2,7 220 - 0,0 324 1.020,4
14:35 22,3 11,7 15,9 51,0 2,5 219 - 0,0 351 1.020,4
14:34 22,3 11,7 15,9 51,0 2,2 219 - 0,0 365 1.020,4
14:33 22,3 11,6 15,8 50,6 1,9 217 - 0,0 398 1.020,4
14:32 22,3 11,4 15,7 50,0 1,7 214 - 0,0 429 1.020,4
14:31 22,2 11,3 15,6 50,0 1,3 208 - 0,0 432 1.020,4
14:30 22,2 11,6 15,8 50,9 1,3 204 - 0,0 432 1.020,5
14:29 22,2 11,6 15,8 50,9 1,6 201 - 0,0 432 1.020,5
14:28 22,2 11,2 15,6 49,8 1,8 197 - 0,0 412 1.020,5
14:27 22,2 11,0 15,4 49,0 1,6 193 - 0,0 362 1.020,4
14:26 22,2 11,0 15,4 49,0 1,2 192 - 0,0 315 1.020,5
14:25 22,2 11,0 15,4 49,0 1,4 191 - 0,0 305 1.020,5
14:24 22,3 11,1 15,5 49,0 1,8 189 - 0,0 407 1.020,5
14:23 22,3 10,8 15,4 48,2 2,5 190 - 0,0 573 1.020,5
14:22 22,3 11,0 15,4 48,7 2,3 193 - 0,0 573 1.020,5
14:21 22,2 10,7 15,2 48,0 2,1 197 - 0,0 402 1.020,5
14:20 22,1 10,8 15,3 48,6 1,8 198 - 0,0 359 1.020,5
14:19 22,0 10,8 15,3 49,0 1,9 197 - 0,0 359 1.020,6
14:18 21,9 10,7 15,2 49,0 1,6 198 - 0,0 359 1.020,6
14:17 21,9 10,7 15,2 48,9 1,2 200 - 0,0 359 1.020,7
14:16 21,9 10,5 15,1 48,3 1,5 202 - 0,0 332 1.020,7
14:15 22,0 10,7 15,2 48,6 2,0 201 - 0,0 308 1.020,6
14:14 22,1 10,8 15,3 48,7 2,3 198 - 0,0 307 1.020,6
14:13 22,1 11,0 15,4 49,3 1,9 200 - 0,0 309 1.020,6
14:12 22,1 11,2 15,5 49,9 1,2 203 - 0,0 311 1.020,7
14:11 22,2 11,0 15,4 49,0 1,3 203 - 0,0 320 1.020,6
14:10 22,3 10,9 15,4 48,5 2,1 200 - 0,0 512 1.020,6
14:09 22,3 10,6 15,2 47,5 3,1 197 - 0,0 592 1.020,7
14:08 22,4 10,7 15,3 47,6 2,3 196 - 0,0 397 1.020,7
14:07 22,3 11,0 15,5 48,8 1,9 193 - 0,0 567 1.020,7
14:06 22,3 11,3 15,7 49,9 1,8 187 - 0,0 1.107 1.020,7
14:05 22,0 11,2 15,5 50,2 1,4 183 - 0,0 1.098 1.020,7
14:04 21,8 11,4 15,6 51,7 1,2 190 - 0,0 1.092 1.020,7
14:03 21,6 11,4 15,5 52,4 1,1 206 - 0,0 1.114 1.020,7
14:02 21,4 11,1 15,3 52,0 1,4 220 - 0,0 1.001 1.020,7
14:01 21,3 10,8 15,1 51,2 1,8 230 - 0,0 336 1.020,7
14:00 21,3 10,8 15,1 51,0 2,2 232 - 0,0 336 1.020,7
 
13:59 21,3 10,7 15,0 50,8 2,6 229 - 0,0 336 1.020,7
13:58 21,4 10,5 15,0 50,0 2,8 224 - 0,0 336 1.020,7
13:57 21,5 10,5 15,0 49,5 2,9 218 - 0,0 336 1.020,8
13:56 21,6 10,4 14,9 49,0 2,8 209 - 0,0 285 1.020,8
13:55 21,7 10,5 15,0 49,0 2,1 194 - 0,0 261 1.020,8
13:54 21,7 10,5 15,0 49,0 1,0 175 - 0,0 243 1.020,7
13:53 21,8 10,6 15,1 49,0 1,0 160 - 0,0 226 1.020,7
13:52 21,7 10,6 15,1 49,4 1,5 151 - 0,0 232 1.020,7
13:51 21,7 10,8 15,2 50,0 1,1 151 - 0,0 236 1.020,7
13:50 21,7 10,8 15,2 50,0 1,1 163 - 0,0 236 1.020,7
13:49 21,5 10,6 15,0 50,0 1,0 186 - 0,0 236 1.020,8
13:48 21,5 10,6 15,0 49,9 0,7 203 - 0,0 236 1.020,8
13:47 21,4 10,3 14,8 49,3 0,7 209 - 0,0 239 1.020,8
13:46 21,4 10,7 15,0 50,4 0,9 205 - 0,0 250 1.020,8
13:45 21,3 10,8 15,1 51,0 1,0 196 - 0,0 276 1.020,8
13:44 21,3 10,8 15,1 51,0 0,7 190 - 0,0 302 1.020,8
13:43 21,2 10,7 15,0 51,0 0,7 192 - 0,0 313 1.020,8
13:42 21,2 10,6 15,0 50,9 1,4 194 - 0,0 315 1.020,8
13:41 21,2 10,4 14,8 50,0 2,2 197 - 0,0 302 1.020,8
13:40 21,2 10,5 14,9 50,5 2,5 201 - 0,0 294 1.020,8
13:39 21,2 10,7 15,0 51,0 2,7 206 - 0,0 293 1.020,8
13:38 21,3 10,8 15,1 51,0 2,5 210 - 0,0 277 1.020,8
13:37 21,4 10,6 15,0 50,1 2,3 211 - 0,0 268 1.020,8
13:36 21,4 10,3 14,8 49,1 2,1 210 - 0,0 271 1.020,8
13:35 21,4 10,2 14,8 49,0 1,8 210 - 0,0 283 1.020,8
13:34 21,4 10,4 14,9 49,5 1,4 209 - 0,0 291 1.020,8
13:33 21,4 10,4 14,9 49,4 1,2 209 - 0,0 300 1.020,8
13:32 21,3 10,2 14,7 49,0 1,4 210 - 0,0 297 1.020,8
13:31 21,4 10,2 14,8 49,0 2,4 213 - 0,0 301 1.020,8
13:30 21,5 10,3 14,9 49,0 3,3 217 - 0,0 331 1.020,8
13:29 21,6 10,6 15,0 49,4 3,3 219 - 0,0 476 1.020,8
13:28 21,6 10,6 15,0 49,5 3,1 220 - 0,0 545 1.020,8
13:27 21,6 10,6 15,1 49,6 2,9 219 - 0,0 530 1.020,8
13:26 21,4 - - - - - - - - -
13:25 21,4 10,6 15,0 50,1 2,4 216 - 0,0 392 1.020,8
13:24 21,3 10,8 15,1 51,2 2,0 214 - 0,0 392 1.020,8
13:23 21,3 11,0 15,2 51,7 1,6 213 - 0,0 395 1.020,8
13:22 21,3 10,9 15,1 51,5 1,3 216 - 0,0 394 1.020,8
13:21 21,2 11,2 15,3 52,7 1,5 217 - 0,0 377 1.020,8
13:20 21,2 11,0 15,2 52,2 1,6 216 - 0,0 416 1.020,8
13:19 21,2 10,7 15,0 51,1 1,5 214 - 0,0 446 1.020,8
13:18 21,2 10,7 15,0 51,0 2,0 210 - 0,0 413 1.020,8
13:17 21,2 10,8 15,0 51,4 2,4 206 - 0,0 406 1.020,8
13:16 21,1 10,9 15,1 52,0 2,4 203 - 0,0 395 1.020,8
13:15 21,0 10,8 15,0 52,0 2,3 200 - 0,0 394 1.020,8
13:14 20,9 10,4 14,8 51,2 2,2 197 - 0,0 398 1.020,8
13:13 20,9 10,4 14,7 51,0 2,4 195 - 0,0 461 1.020,8
13:12 20,8 10,4 14,7 51,3 2,6 199 - 0,0 527 1.020,9
13:11 20,8 10,6 14,8 52,0 2,5 206 - 0,0 527 1.020,9
13:10 20,8 10,6 14,8 52,0 2,2 209 - 0,0 742 1.020,9
13:09 20,7 10,5 14,7 52,0 2,8 213 - 0,0 731 1.020,9
13:08 20,6 10,4 14,6 52,0 2,6 220 - 0,0 534 1.020,9
13:07 20,6 10,7 14,8 52,9 2,6 225 - 0,0 504 1.020,9
13:06 20,6 10,3 14,6 51,8 2,5 225 - 0,0 422 1.020,9
13:05 20,6 9,9 14,4 50,4 2,9 226 - 0,0 367 1.020,9
13:04 20,6 10,1 14,5 51,1 3,4 228 - 0,0 387 1.020,9
13:03 20,7 10,5 14,7 52,0 3,9 232 - 0,0 345 1.020,9
13:02 20,7 10,3 14,6 51,2 4,1 235 - 0,0 316 1.020,8
13:01 20,8 10,5 14,8 51,7 3,8 237 - 0,0 364 1.020,9
13:00 20,8 10,0 14,5 50,0 3,6 237 - 0,0 364 1.020,9
 
12:59 20,9 10,2 14,6 50,5 3,6 234 - 0,0 364 1.020,9
12:58 20,9 10,4 14,7 51,0 1,9 227 - 0,0 446 1.020,9
12:57 20,9 10,2 14,6 50,3 0,8 216 - 0,0 373 1.020,9
12:56 20,8 10,3 14,6 50,9 1,4 203 - 0,0 334 1.021,0
12:55 20,8 10,3 14,6 51,0 2,3 193 - 0,0 361 1.021,0
12:54 20,8 10,3 14,6 51,0 2,3 190 - 0,0 371 1.021,0
12:53 20,7 10,3 14,6 51,5 2,0 192 - 0,0 327 1.021,0
12:52 20,6 10,6 14,8 52,6 1,6 194 - 0,0 505 1.021,0
12:51 20,4 10,7 14,8 53,8 1,6 197 - 0,0 515 1.021,0
12:50 20,3 11,0 14,9 55,0 1,7 198 - 0,0 534 1.021,0
12:49 20,2 10,8 14,8 54,8 1,9 198 - 0,0 428 1.021,0
12:48 20,1 10,6 14,6 54,4 2,3 199 - 0,0 318 1.021,1
12:47 20,1 10,8 14,7 55,0 2,8 202 - 0,0 318 1.021,1
12:46 20,1 10,9 14,8 55,6 2,6 206 - 0,0 262 1.021,1
12:45 20,1 11,0 14,9 56,0 2,0 212 - 0,0 249 1.021,1
12:44 20,1 10,8 14,7 55,1 1,6 221 - 0,0 255 1.021,1
12:43 20,1 10,6 14,6 54,4 2,1 231 - 0,0 256 1.021,1
12:42 20,2 11,1 14,9 55,7 2,8 238 - 0,0 252 1.021,1
12:41 20,2 10,7 14,7 54,5 3,0 240 - 0,0 247 1.021,1
12:40 20,3 10,7 14,7 54,0 3,2 238 - 0,0 228 1.021,1
12:39 20,3 10,7 14,7 54,0 3,4 234 - 0,0 230 1.021,1
12:38 20,3 10,9 14,9 54,9 3,2 230 - 0,0 245 1.021,1
12:37 20,3 10,7 14,7 54,0 3,1 227 - 0,0 276 1.021,1
12:36 20,4 10,8 14,8 54,0 3,1 226 - 0,0 298 1.021,2
12:35 20,4 10,8 14,8 54,0 3,3 225 - 0,0 290 1.021,2
12:34 20,5 10,7 14,8 53,4 3,4 225 - 0,0 263 1.021,2
12:32 20,6 11,0 15,0 54,0 3,2 225 - 0,0 262 1.021,2
12:31 20,6 11,0 15,0 54,0 2,4 223 - 0,0 252 1.021,2
12:30 20,5 11,0 15,0 54,4 1,6 219 - 0,0 241 1.021,1
12:29 20,4 11,1 15,0 55,0 1,1 214 - 0,0 244 1.021,2
12:28 20,3 11,0 14,9 55,0 1,4 214 - 0,0 256 1.021,2
12:27 20,3 11,0 14,9 55,1 1,7 220 - 0,0 280 1.021,1
12:26 20,3 11,2 15,0 55,9 1,6 229 - 0,0 306 1.021,2
12:25 20,3 11,0 14,9 55,0 1,5 235 - 0,0 341 1.021,2
12:24 20,2 10,9 14,8 55,0 1,9 236 - 0,0 927 1.021,2
12:23 20,1 10,8 14,7 55,0 2,1 228 - 0,0 1.001 1.021,2
12:22 20,1 10,8 14,7 55,0 1,8 220 - 0,0 346 1.021,2
12:21 20,1 10,5 14,5 53,9 2,3 216 - 0,0 329 1.021,1
12:20 20,1 10,3 14,5 53,3 3,7 215 - 0,0 308 1.021,1
12:19 20,2 10,5 14,6 53,7 4,2 215 - 0,0 286 1.021,1
12:18 20,2 10,3 14,5 53,0 4,2 217 - 0,0 183 1.021,2
12:17 20,3 10,4 14,6 53,0 4,3 220 - 0,0 160 1.021,2
12:16 20,3 10,6 14,7 53,8 4,4 221 - 0,0 160 1.021,2
12:15 20,4 10,8 14,8 54,0 4,0 219 - 0,0 160 1.021,2
12:14 20,4 10,5 14,7 53,1 3,4 214 - 0,0 160 1.021,1
12:13 20,5 10,6 14,7 53,0 2,8 209 - 0,0 169 1.021,1
12:12 20,4 10,5 14,7 53,0 2,3 204 - 0,0 198 1.021,2
12:11 20,4 10,5 14,7 53,0 1,9 199 - 0,0 201 1.021,2
12:10 20,4 10,7 14,8 53,8 1,9 198 - 0,0 184 1.021,2
12:09 20,4 10,8 14,8 54,0 2,1 201 - 0,0 181 1.021,2
12:08 20,3 10,7 14,8 54,2 2,4 207 - 0,0 198 1.021,2
12:07 20,3 11,1 15,0 55,4 2,4 212 - 0,0 638 1.021,2
12:06 20,3 11,1 15,0 55,5 2,4 218 - 0,0 868 1.021,2
12:05 20,2 10,7 14,7 54,4 2,5 223 - 0,0 865 1.021,2
12:04 20,2 10,6 14,6 54,0 3,1 227 - 0,0 838 1.021,2
12:03 20,3 10,7 14,7 54,1 3,6 229 - 0,0 812 1.021,2
12:02 20,3 11,0 14,9 55,0 3,7 229 - 0,0 812 1.021,2
12:01 20,4 11,0 14,9 54,7 3,4 228 - 0,0 810 1.021,2
12:00 20,4 10,6 14,7 53,5 3,3 226 - 0,0 809 1.021,2
 
11:59 20,4 10,5 14,7 53,0 3,6 224 - 0,0 810 1.021,2
11:58 20,4 10,5 14,7 53,0 3,6 222 - 0,0 812 1.021,2
11:57 20,4 10,8 14,8 53,9 3,2 219 - 0,0 817 1.021,2
11:56 20,3 10,4 14,6 53,0 2,4 215 - 0,0 831 1.021,2
11:55 20,3 10,4 14,6 53,0 2,0 210 - 0,0 839 1.021,2
11:54 20,2 10,6 14,6 54,0 2,1 207 - 0,0 818 1.021,2
11:53 20,2 10,9 14,8 55,0 2,1 201 - 0,0 804 1.021,2
11:52 20,1 10,8 14,7 55,0 1,6 190 - 0,0 811 1.021,2
11:51 20,1 10,8 14,7 55,0 1,2 183 - 0,0 820 1.021,1
11:50 20,1 10,8 14,7 55,0 1,1 185 - 0,0 807 1.021,1
11:49 20,1 10,8 14,7 55,0 2,0 193 - 0,0 796 1.021,2
11:48 20,1 10,6 14,6 54,5 2,9 199 - 0,0 794 1.021,2
11:47 20,1 10,5 14,6 54,0 3,9 205 - 0,0 745 1.021,2
11:46 20,1 10,3 14,4 53,2 3,9 210 - 0,0 670 1.021,2
11:45 20,2 10,3 14,5 53,1 3,8 214 - 0,0 681 1.021,2
11:44 20,2 10,6 14,6 54,0 3,9 214 - 0,0 748 1.021,2
11:43 20,2 10,6 14,6 54,0 3,6 210 - 0,0 784 1.021,2
11:42 20,1 10,5 14,6 54,0 2,7 203 - 0,0 770 1.021,1
11:41 20,1 10,5 14,6 54,0 2,1 198 - 0,0 778 1.021,2
11:40 20,0 10,4 14,5 54,0 2,1 196 - 0,0 818 1.021,2
11:39 20,0 10,5 14,5 54,3 2,4 198 - 0,0 841 1.021,2
11:38 19,9 10,6 14,6 55,0 2,5 203 - 0,0 824 1.021,2
11:37 19,9 10,6 14,6 55,0 2,3 209 - 0,0 563 1.021,2
11:36 19,9 10,4 14,5 54,4 2,3 214 - 0,0 501 1.021,2
11:35 19,9 10,3 14,4 54,0 2,1 214 - 0,0 501 1.021,3
11:34 19,9 10,3 14,4 54,0 2,0 208 - 0,0 542 1.021,2
11:33 19,9 10,1 14,3 53,2 2,6 201 - 0,0 619 1.021,3
11:32 19,9 10,5 14,5 54,5 3,2 196 - 0,0 619 1.021,3
11:31 19,9 10,5 14,5 54,6 3,4 195 - 0,0 633 1.021,2
11:30 19,9 10,5 14,5 54,6 2,6 198 - 0,0 636 1.021,2
11:29 19,9 10,6 14,6 55,0 1,6 201 - 0,0 642 1.021,3
11:28 19,9 10,3 14,4 54,1 2,2 203 - 0,0 652 1.021,3
11:27 19,9 10,4 14,4 54,2 3,0 205 - 0,0 658 1.021,3
11:26 19,9 10,6 14,6 55,0 2,4 204 - 0,0 715 1.021,3
11:25 19,9 10,5 14,5 54,5 1,8 200 - 0,0 784 1.021,3
11:24 19,9 10,5 14,5 54,6 1,6 191 - 0,0 790 1.021,3
11:23 19,8 10,5 14,5 55,0 1,4 186 - 0,0 763 1.021,3
11:22 19,8 10,5 14,5 55,0 1,3 189 - 0,0 773 1.021,3
11:21 19,8 10,5 14,5 55,0 1,6 196 - 0,0 773 1.021,3
11:20 19,8 10,6 14,5 55,4 2,1 200 - 0,0 765 1.021,3
11:19 19,9 10,9 14,7 56,0 3,0 203 - 0,0 703 1.021,3
11:18 19,9 10,7 14,6 55,4 3,3 204 - 0,0 699 1.021,3
11:17 19,8 10,5 14,5 55,0 2,9 206 - 0,0 675 1.021,3
11:16 19,8 10,5 14,5 55,0 2,1 204 - 0,0 671 1.021,3
11:15 19,8 10,5 14,5 55,0 1,6 200 - 0,0 703 1.021,3
11:14 19,8 10,5 14,5 55,0 1,6 196 - 0,0 681 1.021,3
11:13 19,8 10,5 14,5 55,0 2,2 195 - 0,0 683 1.021,3
11:12 19,8 10,5 14,5 55,0 2,6 194 - 0,0 663 1.021,3
11:11 19,8 10,7 14,6 55,8 2,4 196 - 0,0 709 1.021,3
11:10 19,7 10,7 14,6 56,0 2,2 199 - 0,0 707 1.021,3
11:09 19,7 10,8 14,6 56,3 2,4 200 - 0,0 707 1.021,4
11:08 19,7 10,9 14,7 57,0 2,5 199 - 0,0 708 1.021,4
11:07 19,6 10,8 14,6 57,0 2,1 197 - 0,0 707 1.021,4
11:06 19,6 10,8 14,6 57,0 2,2 195 - 0,0 703 1.021,4
11:05 19,5 10,5 14,4 56,2 2,5 195 - 0,0 698 1.021,4
11:04 19,5 10,8 14,5 57,0 2,4 196 - 0,0 696 1.021,4
11:03 19,4 10,7 14,5 57,0 2,1 200 - 0,0 699 1.021,4
11:02 19,4 11,0 14,6 58,2 2,4 204 - 0,0 695 1.021,4
11:01 19,4 11,1 14,7 58,5 2,9 205 - 0,0 694 1.021,4
11:00 19,3 10,6 14,4 57,3 3,1 203 - 0,0 687 1.021,4
 
10:58 19,3 10,8 14,5 57,7 3,0 197 - 0,0 681 1.021,4
10:57 19,3 10,6 14,4 57,0 2,6 190 - 0,0 676 1.021,4
10:56 19,3 10,7 14,4 57,5 2,6 186 - 0,0 681 1.021,4
10:55 19,3 11,0 14,6 58,7 3,2 182 - 0,0 677 1.021,4
10:54 19,3 11,1 14,7 59,0 3,1 181 - 0,0 677 1.021,5
10:53 19,2 11,0 14,6 59,0 2,6 182 - 0,0 676 1.021,5
10:52 19,2 11,0 14,6 59,0 2,3 185 - 0,0 674 1.021,5
10:51 19,2 11,0 14,6 59,0 2,4 189 - 0,0 673 1.021,4
10:50 19,2 11,0 14,6 59,0 2,9 192 - 0,0 671 1.021,4
10:49 19,1 10,9 14,5 59,0 2,9 193 - 0,0 670 1.021,4
10:48 19,1 10,9 14,5 59,0 3,0 195 - 0,0 669 1.021,4
10:47 19,1 10,9 14,5 59,0 3,1 197 - 0,0 664 1.021,4
10:46 19,1 10,9 14,5 59,0 3,5 199 - 0,0 659 1.021,4
10:45 19,1 11,0 14,6 59,4 3,6 196 - 0,0 657 1.021,4
10:44 19,1 11,2 14,7 60,0 3,7 189 - 0,0 657 1.021,5
10:43 19,1 11,3 14,8 60,7 2,7 185 - 0,0 659 1.021,5
10:42 19,0 11,1 14,6 60,3 2,1 183 - 0,0 659 1.021,5
10:41 18,9 11,2 14,6 60,9 2,0 184 - 0,0 658 1.021,5
10:40 18,9 11,2 14,6 61,0 2,5 184 - 0,0 657 1.021,6
10:39 18,9 11,2 14,6 61,0 3,2 190 - 0,0 655 1.021,5
10:38 18,9 11,3 14,7 61,5 3,1 198 - 0,0 651 1.021,5
10:37 18,9 11,5 14,8 62,0 3,1 204 - 0,0 648 1.021,5
10:36 18,8 11,4 14,7 62,0 3,0 206 - 0,0 633 1.021,5
10:35 18,8 11,4 14,7 62,1 3,4 207 - 0,0 638 1.021,5
10:34 18,8 11,6 14,8 63,0 4,0 205 - 0,0 643 1.021,5
10:33 18,8 11,7 14,9 63,4 4,0 202 - 0,0 642 1.021,6
10:32 18,7 11,9 15,0 64,5 3,2 199 - 0,0 640 1.021,6
10:31 18,7 12,0 15,1 65,0 2,6 197 - 0,0 626 1.021,6
10:30 18,7 12,2 15,2 65,8 2,5 195 - 0,0 626 1.021,6
10:29 18,6 12,1 15,1 66,0 1,9 193 - 0,0 628 1.021,6
10:28 18,6 12,1 15,1 65,8 2,0 196 - 0,0 624 1.021,6
10:27 18,6 11,9 15,0 65,0 2,5 202 - 0,0 606 1.021,6
10:26 18,6 12,0 15,1 65,6 3,3 202 - 0,0 626 1.021,5
10:25 18,6 12,1 15,1 66,0 3,3 198 - 0,0 628 1.021,5
10:24 18,6 12,1 15,1 66,0 3,0 192 - 0,0 617 1.021,6
10:23 18,6 12,4 15,3 67,0 2,8 190 - 0,0 600 1.021,6
10:22 18,6 12,4 15,3 67,3 3,2 190 - 0,0 597 1.021,6
10:21 18,5 12,5 15,3 68,0 2,9 191 - 0,0 599 1.021,6
10:20 18,5 12,5 15,3 68,0 2,5 195 - 0,0 613 1.021,6
10:19 18,4 12,4 15,2 68,0 2,0 203 - 0,0 577 1.021,6
10:18 18,4 12,4 15,2 68,0 2,0 209 - 0,0 608 1.021,6
10:17 18,4 12,6 15,4 69,0 2,5 210 - 0,0 609 1.021,5
10:16 18,3 12,5 15,3 69,0 2,6 204 - 0,0 606 1.021,5
10:15 18,3 12,5 15,3 69,0 1,9 194 - 0,0 604 1.021,6
10:14 18,2 12,6 15,3 69,6 0,9 184 - 0,0 603 1.021,6
10:13 18,2 12,6 15,3 70,0 1,2 176 - 0,0 598 1.021,6
10:12 18,2 12,6 15,3 70,0 0,9 173 - 0,0 594 1.021,6
10:11 18,1 12,5 15,2 69,9 1,2 181 - 0,0 589 1.021,6
10:10 18,1 12,3 15,1 69,0 1,9 194 - 0,0 590 1.021,6
10:09 18,1 12,3 15,1 69,0 2,2 201 - 0,0 589 1.021,6
10:08 18,1 12,3 15,1 69,0 2,7 203 - 0,0 585 1.021,6
10:07 18,1 12,3 15,1 69,0 3,3 202 - 0,0 584 1.021,6
10:06 18,1 12,5 15,2 69,9 3,1 201 - 0,0 582 1.021,6
10:05 18,1 12,5 15,2 70,0 2,5 200 - 0,0 578 1.021,6
10:04 18,1 12,5 15,2 70,0 2,0 196 - 0,0 576 1.021,6
10:03 18,1 12,7 15,3 70,5 1,8 192 - 0,0 575 1.021,6
10:02 18,1 12,6 15,3 70,4 1,4 190 - 0,0 573 1.021,6
10:01 18,0 12,4 15,1 70,0 1,5 191 - 0,0 570 1.021,6
10:00 18,0 12,4 15,1 70,0 1,9 192 - 0,0 567 1.021,6
 
09:59 18,0 12,4 15,1 70,0 2,0 190 - 0,0 565 1.021,6
09:58 18,0 12,4 15,1 70,0 1,8 192 - 0,0 563 1.021,6
09:57 18,0 12,4 15,1 70,0 1,5 195 - 0,0 563 1.021,6
09:56 18,0 12,4 15,1 70,0 1,9 197 - 0,0 562 1.021,6
09:55 18,0 12,6 15,3 70,8 2,5 197 - 0,0 559 1.021,6
09:54 18,0 12,9 15,4 72,0 2,5 195 - 0,0 557 1.021,5
09:53 18,0 12,9 15,4 72,0 1,9 196 - 0,0 555 1.021,6
09:52 17,9 12,8 15,3 72,0 1,6 195 - 0,0 553 1.021,6
09:51 17,9 12,8 15,3 72,0 1,7 191 - 0,0 549 1.021,6
09:50 17,8 12,7 15,2 72,0 2,1 188 - 0,0 548 1.021,6
09:49 17,8 12,7 15,2 72,0 2,4 192 - 0,0 547 1.021,6
09:48 17,8 12,7 15,2 72,0 2,2 201 - 0,0 545 1.021,6
09:47 17,7 12,7 15,2 72,3 1,4 208 - 0,0 544 1.021,5
09:46 17,7 12,8 15,3 73,0 1,7 211 - 0,0 541 1.021,5
09:45 17,7 12,9 15,4 73,6 1,8 214 - 0,0 540 1.021,6
09:44 17,6 12,9 15,3 74,0 1,7 216 - 0,0 536 1.021,6
09:43 17,6 12,9 15,3 74,0 1,6 213 - 0,0 533 1.021,6
09:42 17,5 12,8 15,2 74,0 1,6 208 - 0,0 529 1.021,6
09:41 17,5 12,8 15,2 74,0 1,7 202 - 0,0 527 1.021,6
09:40 17,4 12,7 15,1 74,0 1,9 198 - 0,0 525 1.021,6
09:39 17,4 12,7 15,1 74,0 1,8 198 - 0,0 520 1.021,6
09:38 17,3 12,6 15,0 74,0 1,3 196 - 0,0 520 1.021,5
09:37 17,3 12,6 15,0 74,0 0,7 192 - 0,0 520 1.021,6
09:36 17,4 12,8 15,2 74,2 1,3 191 - 0,0 516 1.021,6
09:35 17,4 13,0 15,3 75,3 2,6 195 - 0,0 513 1.021,6
09:34 17,4 13,1 15,4 76,0 2,7 202 - 0,0 511 1.021,6
09:33 17,4 13,1 15,4 76,0 2,1 207 - 0,0 508 1.021,6
09:32 17,3 13,0 15,3 76,0 1,5 208 - 0,0 506 1.021,7
09:31 17,3 13,0 15,3 76,0 1,6 211 - 0,0 503 1.021,7
09:30 17,3 13,0 15,3 76,0 2,0 211 - 0,0 501 1.021,7
09:29 17,2 12,9 15,2 76,0 2,0 210 - 0,0 500 1.021,7
09:28 17,2 12,9 15,2 76,0 1,8 208 - 0,0 497 1.021,7
09:27 17,2 12,9 15,2 76,0 1,8 205 - 0,0 493 1.021,6
09:26 17,2 13,1 15,3 76,8 1,9 200 - 0,0 474 1.021,6
09:25 17,2 - - - - - - - - -
09:24 17,1 13,0 15,2 77,0 1,7 205 - 0,0 488 1.021,6
09:23 17,1 13,1 15,3 77,4 1,6 207 - 0,0 484 1.021,6
09:22 17,1 13,1 15,3 77,5 1,7 209 - 0,0 486 1.021,6
09:21 17,0 13,1 15,2 77,7 2,2 214 - 0,0 482 1.021,6
09:20 16,9 13,0 15,2 78,0 1,9 214 - 0,0 478 1.021,6
09:19 16,9 13,0 15,2 78,0 1,3 208 - 0,0 477 1.021,6
09:18 16,9 13,0 15,2 77,8 1,3 194 - 0,0 474 1.021,6
09:17 16,9 12,8 15,1 77,0 1,4 180 - 0,0 473 1.021,6
09:16 16,9 12,8 15,1 77,0 2,2 170 - 0,0 470 1.021,6
09:15 16,9 13,0 15,2 77,8 2,6 166 - 0,0 466 1.021,6
09:14 16,9 13,0 15,2 78,0 2,7 167 - 0,0 465 1.021,6
09:13 16,9 13,0 15,2 78,0 2,3 171 - 0,0 463 1.021,6
09:12 16,9 13,0 15,2 78,0 2,6 176 - 0,0 459 1.021,5
09:11 16,9 13,0 15,2 78,0 2,6 181 - 0,0 456 1.021,5
09:10 16,9 13,0 15,2 78,0 2,3 188 - 0,0 454 1.021,6
09:09 16,8 12,9 15,1 78,0 2,0 197 - 0,0 450 1.021,6
09:08 16,8 12,9 15,1 78,0 1,9 204 - 0,0 446 1.021,6
09:07 16,8 12,9 15,1 78,0 2,0 210 - 0,0 446 1.021,6
09:06 16,8 13,0 15,1 78,3 2,0 213 - 0,0 445 1.021,5
09:05 16,7 13,0 15,1 79,0 2,0 214 - 0,0 442 1.021,5
09:04 16,7 13,0 15,1 79,0 1,9 213 - 0,0 441 1.021,5
09:03 16,7 13,0 15,1 79,0 1,6 210 - 0,0 438 1.021,5
09:02 16,7 13,0 15,1 79,0 1,8 206 - 0,0 435 1.021,5
09:01 16,7 13,0 15,1 79,0 2,1 205 - 0,0 432 1.021,5
09:00 16,6 12,9 15,0 79,0 1,9 201 - 0,0 430 1.021,5
 
08:59 16,6 12,9 15,0 79,0 1,5 198 - 0,0 428 1.021,5
08:58 16,6 12,8 15,0 78,5 1,6 197 - 0,0 424 1.021,5
08:57 16,6 12,9 15,0 78,7 2,5 197 - 0,0 421 1.021,5
08:56 16,7 13,0 15,1 79,0 3,1 194 - 0,0 418 1.021,5
08:55 16,7 13,0 15,1 79,0 2,8 193 - 0,0 417 1.021,5
08:54 16,6 12,9 15,0 79,0 2,3 193 - 0,0 414 1.021,5
08:53 16,7 13,0 15,1 79,0 2,4 195 - 0,0 413 1.021,5
08:52 16,7 13,0 15,1 79,0 2,7 195 - 0,0 411 1.021,4
08:51 16,7 13,2 15,2 79,8 2,9 192 - 0,0 410 1.021,4
08:50 16,7 13,2 15,3 80,0 2,6 191 - 0,0 407 1.021,5
08:49 16,6 13,1 15,2 80,0 1,9 190 - 0,0 405 1.021,5
08:48 16,6 13,1 15,2 80,0 1,3 189 - 0,0 400 1.021,4
08:47 16,5 13,0 15,1 80,0 1,1 189 - 0,0 397 1.021,4
08:46 16,4 12,9 15,0 80,0 1,1 191 - 0,0 396 1.021,4
08:45 16,4 12,9 15,0 80,0 1,6 196 - 0,0 395 1.021,4
08:44 16,4 12,9 15,0 80,0 2,0 204 - 0,0 390 1.021,4
08:43 16,3 12,8 14,9 80,0 2,2 210 - 0,0 389 1.021,4
08:42 16,3 12,8 14,9 80,0 1,9 213 - 0,0 386 1.021,4
08:41 16,3 12,8 14,9 80,0 1,7 216 - 0,0 385 1.021,4
08:40 16,3 12,8 14,9 80,0 1,6 220 - 0,0 383 1.021,4
08:39 16,3 12,8 14,9 80,0 1,6 221 - 0,0 378 1.021,4
08:38 16,2 12,7 14,8 80,0 1,8 219 - 0,0 374 1.021,4
08:37 16,2 12,7 14,8 80,0 1,6 218 - 0,0 373 1.021,4
08:36 16,1 12,6 14,7 80,0 2,2 219 - 0,0 373 1.021,4
08:35 16,1 12,6 14,7 80,0 2,4 219 - 0,0 371 1.021,4
08:34 16,1 12,6 14,7 80,0 2,6 219 - 0,0 367 1.021,4
08:33 16,1 12,6 14,7 80,0 2,7 220 - 0,0 365 1.021,4
08:32 16,1 12,6 14,7 80,0 2,9 219 - 0,0 362 1.021,4
08:31 16,1 12,6 14,7 80,0 2,6 216 - 0,0 360 1.021,4
08:30 16,1 12,6 14,7 80,0 2,5 210 - 0,0 358 1.021,4
08:29 16,1 12,6 14,7 80,0 2,7 205 - 0,0 355 1.021,4
08:28 16,1 12,6 14,7 80,0 2,6 202 - 0,0 353 1.021,4
08:27 16,0 12,6 14,6 80,0 2,2 200 - 0,0 349 1.021,4
08:26 16,0 12,6 14,6 80,0 2,2 196 - 0,0 347 1.021,3
08:25 16,0 12,6 14,6 80,0 2,5 193 - 0,0 344 1.021,3
08:24 16,0 12,6 14,6 80,0 1,8 194 - 0,0 342 1.021,3
08:23 16,0 12,6 14,6 80,0 1,7 198 - 0,0 339 1.021,3
08:22 16,0 12,7 14,6 80,7 2,1 200 - 0,0 336 1.021,3
08:21 15,9 12,6 14,6 81,0 2,5 201 - 0,0 333 1.021,3
08:20 15,9 12,6 14,6 80,9 2,0 205 - 0,0 331 1.021,3
08:19 15,9 12,5 14,5 80,0 1,4 211 - 0,0 329 1.021,3
08:18 15,8 12,4 14,4 80,0 1,7 215 - 0,0 329 1.021,3
08:17 15,8 12,4 14,4 80,0 2,1 213 - 0,0 325 1.021,3
08:16 15,8 12,5 14,4 80,7 2,3 210 - 0,0 320 1.021,2
08:15 15,8 12,5 14,5 81,0 2,1 208 - 0,0 319 1.021,2
08:14 15,8 12,5 14,5 81,0 1,7 206 - 0,0 317 1.021,2
08:13 15,7 12,4 14,4 81,0 1,6 204 - 0,0 315 1.021,2
08:12 15,7 12,4 14,4 81,0 1,6 200 - 0,0 309 1.021,2
08:11 15,7 12,4 14,4 81,0 1,8 199 - 0,0 308 1.021,2
08:10 15,7 12,4 14,4 81,0 2,0 200 - 0,0 308 1.021,2
08:09 15,6 12,4 14,3 81,0 2,2 203 - 0,0 305 1.021,2
08:08 15,6 12,3 14,3 80,9 1,8 207 - 0,0 303 1.021,2
08:07 15,6 12,2 14,2 80,0 1,4 214 - 0,0 301 1.021,2
08:06 15,6 12,2 14,2 80,0 1,8 218 - 0,0 299 1.021,1
08:05 15,6 12,2 14,2 80,0 2,6 219 - 0,0 297 1.021,1
08:04 15,6 12,3 14,3 80,8 2,5 218 - 0,0 293 1.021,1
08:03 15,6 12,2 14,2 80,1 1,5 218 - 0,0 291 1.021,1
08:02 15,5 12,1 14,1 80,0 1,4 216 - 0,0 289 1.021,1
08:01 15,5 12,1 14,1 80,0 1,6 212 - 0,0 286 1.021,1
08:00 15,5 12,1 14,1 80,0 2,6 206 - 0,0 283 1.021,1
 
07:59 15,5 12,1 14,1 80,0 2,9 204 - 0,0 281 1.021,1
07:58 15,5 12,1 14,1 80,0 2,8 204 - 0,0 278 1.021,1
07:57 15,6 12,2 14,2 80,1 2,5 203 - 0,0 274 1.021,1
07:56 15,6 12,4 14,3 81,0 2,2 202 - 0,0 273 1.021,1
07:55 15,5 12,3 14,2 81,0 1,8 201 - 0,0 272 1.021,1
07:54 15,5 12,3 14,2 81,0 1,8 202 - 0,0 269 1.021,1
07:53 15,5 12,3 14,2 81,0 1,8 201 - 0,0 267 1.021,1
07:52 15,4 12,2 14,1 81,0 1,8 198 - 0,0 264 1.021,0
07:50 15,4 12,1 14,0 80,6 1,5 197 - 0,0 259 1.021,0
07:49 15,4 12,0 14,0 80,0 1,5 198 - 0,0 257 1.021,0
07:48 15,4 12,1 14,0 80,5 1,4 202 - 0,0 255 1.021,0
07:47 15,4 12,2 14,1 81,0 2,0 206 - 0,0 253 1.021,0
07:46 15,3 12,1 14,0 81,0 2,0 210 - 0,0 249 1.021,0
07:45 15,3 12,1 14,0 81,0 1,9 209 - 0,0 247 1.021,0
07:44 15,3 12,1 14,0 81,0 1,8 206 - 0,0 245 1.021,0
07:43 15,3 12,1 14,0 81,0 1,5 197 - 0,0 243 1.021,0
07:42 15,3 12,1 14,0 81,0 0,8 177 - 0,0 241 1.021,0
07:41 15,3 12,1 14,0 81,0 0,6 154 - 0,0 236 1.021,0
07:40 15,3 12,1 14,0 81,0 0,7 146 - 0,0 234 1.021,0
07:39 15,3 12,1 14,0 81,0 1,2 151 - 0,0 233 1.021,0
07:38 15,3 12,1 14,0 81,0 1,2 159 - 0,0 231 1.020,9
07:37 15,3 12,1 14,0 81,0 1,7 166 - 0,0 229 1.020,9
07:36 15,2 12,0 13,9 81,0 1,5 175 - 0,0 227 1.020,9
07:35 15,2 12,0 13,9 81,0 1,1 181 - 0,0 225 1.020,9
07:34 15,2 12,0 13,9 81,0 1,3 181 - 0,0 221 1.020,9
07:33 15,2 12,0 13,9 81,2 1,7 176 - 0,0 218 1.020,9
07:32 15,2 12,1 14,0 82,0 1,8 169 - 0,0 217 1.020,9
07:31 15,1 12,0 13,8 81,6 1,3 164 - 0,0 214 1.020,9
07:30 15,1 12,0 13,8 81,6 1,2 163 - 0,0 213 1.020,9
07:29 15,1 12,0 13,9 82,0 1,2 162 - 0,0 211 1.020,9
07:28 15,1 12,0 13,9 82,0 1,3 167 - 0,0 208 1.020,9
07:27 15,0 12,0 13,8 82,0 1,2 174 - 0,0 207 1.020,9
07:26 15,0 12,0 13,8 82,0 1,3 176 - 0,0 203 1.020,9
07:25 14,9 11,9 13,7 82,0 1,7 175 - 0,0 200 1.020,9
07:24 14,9 11,9 13,7 82,0 1,6 172 - 0,0 199 1.020,9
07:23 14,9 11,9 13,7 82,0 1,6 172 - 0,0 197 1.020,9
07:22 14,9 11,9 13,7 82,0 1,6 173 - 0,0 194 1.020,9
07:21 14,8 11,8 13,6 82,0 1,7 176 - 0,0 191 1.020,8
07:20 14,8 11,8 13,6 82,0 1,9 182 - 0,0 190 1.020,9
07:19 14,8 11,8 13,6 82,0 2,1 188 - 0,0 188 1.020,9
07:18 14,8 11,8 13,6 82,0 1,9 190 - 0,0 186 1.020,8
07:17 14,8 11,8 13,6 82,0 1,9 191 - 0,0 184 1.020,8
07:16 14,8 11,8 13,6 82,0 2,2 193 - 0,0 180 1.020,9
07:15 14,8 11,8 13,6 82,0 2,3 195 - 0,0 179 1.020,8
07:14 14,7 11,7 13,5 82,0 1,7 196 - 0,0 177 1.020,8
07:13 14,7 11,7 13,5 82,0 1,7 198 - 0,0 174 1.020,8
07:12 14,7 11,7 13,5 82,0 2,0 202 - 0,0 172 1.020,8
07:11 14,7 11,7 13,5 82,0 2,2 206 - 0,0 170 1.020,8
07:10 14,7 11,8 13,6 83,0 2,2 208 - 0,0 166 1.020,8
07:09 14,7 11,8 13,6 83,0 1,8 207 - 0,0 164 1.020,9
07:08 14,6 11,7 13,5 83,0 1,7 206 - 0,0 162 1.020,8
07:07 14,6 11,7 13,5 83,0 1,7 201 - 0,0 160 1.020,8
07:06 14,6 11,7 13,5 83,0 2,1 190 - 0,0 156 1.020,8
07:05 14,6 11,7 13,5 83,0 1,4 176 - 0,0 154 1.020,8
07:04 14,6 11,7 13,5 83,0 1,4 163 - 0,0 152 1.020,8
07:03 14,6 11,7 13,5 83,0 1,5 152 - 0,0 149 1.020,8
07:02 14,5 11,6 13,4 83,0 1,5 147 - 0,0 147 1.020,8
07:01 14,5 11,6 13,4 83,0 1,5 156 - 0,0 144 1.020,8
07:00 14,5 11,6 13,4 83,0 1,5 173 - 0,0 141 1.020,8
 
06:59 14,4 11,5 13,3 83,0 1,6 185 - 0,0 138 1.020,8
06:58 14,4 11,6 13,3 83,2 2,3 192 - 0,0 136 1.020,8
06:57 14,4 11,7 13,4 84,0 2,4 198 - 0,0 133 1.020,8
06:56 14,4 11,7 13,4 84,0 1,9 202 - 0,0 131 1.020,8
06:55 14,4 11,7 13,4 84,0 1,7 201 - 0,0 128 1.020,8
06:54 14,4 11,7 13,4 84,0 2,0 200 - 0,0 125 1.020,8
06:53 14,3 11,6 13,3 84,0 2,1 196 - 0,0 122 1.020,8
06:52 14,3 11,6 13,3 84,0 2,0 194 - 0,0 121 1.020,8
06:51 14,3 11,6 13,3 84,0 1,5 196 - 0,0 119 1.020,8
06:50 14,3 11,6 13,3 84,0 1,2 198 - 0,0 115 1.020,8
06:49 14,2 11,5 13,2 84,0 1,3 198 - 0,0 113 1.020,8
06:48 14,2 11,5 13,2 84,0 1,8 197 - 0,0 111 1.020,8
06:47 14,2 11,5 13,2 84,0 2,0 198 - 0,0 108 1.020,8
06:46 14,2 11,5 13,2 84,0 2,1 198 - 0,0 105 1.020,8
06:45 14,2 11,6 13,3 84,5 2,3 196 - 0,0 103 1.020,8
06:44 14,1 11,6 13,2 85,0 2,3 192 - 0,0 100 1.020,8
06:43 14,1 11,6 13,2 85,0 2,1 189 - 0,0 98 1.020,9
06:42 14,1 11,6 13,2 85,0 1,7 189 - 0,0 96 1.020,9
06:41 14,1 11,6 13,2 85,0 1,8 190 - 0,0 92 1.020,9
06:40 14,1 11,6 13,2 85,0 1,9 191 - 0,0 91 1.020,8
06:39 14,1 11,6 13,2 85,0 1,8 192 - 0,0 88 1.020,8
06:38 14,0 11,5 13,1 85,0 1,7 192 - 0,0 86 1.020,8
06:37 14,0 11,5 13,1 85,0 1,7 193 - 0,0 84 1.020,8
06:36 14,0 11,5 13,1 85,0 1,5 192 - 0,0 82 1.020,8
06:35 14,0 11,5 13,1 85,0 1,2 191 - 0,0 78 1.020,8
06:34 13,9 11,5 13,1 85,2 1,2 189 - 0,0 77 1.020,8
06:33 13,9 11,6 13,1 86,0 1,2 187 - 0,0 75 1.020,8
06:32 13,9 11,6 13,1 86,0 1,3 185 - 0,0 71 1.020,8
06:31 13,9 11,6 13,1 86,0 1,5 185 - 0,0 70 1.020,8
06:30 13,9 11,6 13,1 86,0 1,4 185 - 0,0 68 1.020,8
06:29 13,9 11,6 13,1 86,0 1,0 185 - 0,0 66 1.020,8
06:28 13,8 11,5 13,0 86,0 1,1 183 - 0,0 64 1.020,8
06:27 13,8 11,5 13,0 86,0 1,5 185 - 0,0 62 1.020,8
06:26 13,8 11,5 13,0 86,0 1,5 188 - 0,0 60 1.020,8
06:25 13,8 11,5 13,0 86,0 1,3 192 - 0,0 58 1.020,8
06:24 13,8 11,5 13,0 86,0 0,5 192 - 0,0 55 1.020,8
06:23 13,8 11,5 13,0 86,0 0,1 193 - 0,0 54 1.020,8
06:22 13,8 11,5 13,0 86,0 0,4 193 - 0,0 52 1.020,8
06:21 13,7 11,5 13,0 86,4 1,1 193 - 0,0 50 1.020,8
06:20 13,7 11,5 13,0 86,5 0,8 193 - 0,0 49 1.020,8
06:19 13,7 11,5 13,0 86,7 0,7 189 - 0,0 47 1.020,8
06:18 13,7 11,6 13,1 87,0 0,9 180 - 0,0 45 1.020,7
06:16 13,6 11,5 13,0 87,0 0,9 172 - 0,0 41 1.020,8
06:15 13,6 11,5 13,0 87,0 0,9 171 - 0,0 40 1.020,8
06:14 13,6 11,5 13,0 87,0 1,2 176 - 0,0 39 1.020,8
06:13 13,6 11,5 13,0 87,0 1,2 182 - 0,0 37 1.020,8
06:12 13,6 11,5 13,0 87,0 1,2 187 - 0,0 35 1.020,8
06:11 13,6 11,5 13,0 87,0 1,5 194 - 0,0 34 1.020,7
06:10 13,5 11,4 12,8 87,0 1,4 200 - 0,0 32 1.020,8
06:09 13,5 11,4 12,8 87,0 1,4 205 - 0,0 32 1.020,7
06:08 13,5 11,4 12,8 87,0 1,6 209 - 0,0 30 1.020,7
06:07 13,5 11,4 12,8 87,0 1,6 212 - 0,0 30 1.020,7
06:06 13,5 11,4 12,8 87,0 1,4 214 - 0,0 28 1.020,7
06:05 13,4 11,3 12,7 87,0 1,4 215 - 0,0 27 1.020,7
06:04 13,4 11,3 12,7 87,0 1,5 215 - 0,0 26 1.020,8
06:03 13,4 11,3 12,7 87,0 1,4 214 - 0,0 25 1.020,8
06:02 13,4 11,3 12,7 87,0 1,2 209 - 0,0 23 1.020,8
06:01 13,4 11,3 12,7 87,0 1,0 203 - 0,0 23 1.020,8
06:00 13,4 11,3 12,7 87,0 1,2 201 - 0,0 22 1.020,8
 
05:59 13,4 11,3 12,7 87,0 1,4 200 - 0,0 21 1.020,8
05:58 13,4 11,3 12,7 87,0 1,3 197 - 0,0 21 1.020,8
05:57 13,4 11,3 12,7 87,0 1,2 190 - 0,0 19 1.020,8
05:56 13,4 11,3 12,7 87,0 1,0 179 - 0,0 19 1.020,8
05:55 13,4 11,4 12,8 87,8 0,9 169 - 0,0 17 1.020,8
05:54 13,3 11,4 12,8 88,0 0,8 164 - 0,0 16 1.020,8
05:53 13,3 11,4 12,8 88,0 1,0 162 - 0,0 16 1.020,8
05:52 13,3 11,4 12,8 88,0 1,1 166 - 0,0 16 1.020,8
05:51 13,3 11,4 12,8 88,0 1,3 174 - 0,0 16 1.020,8
05:50 13,3 11,4 12,8 88,0 1,2 183 - 0,0 14 1.020,8
05:49 13,3 11,4 12,8 88,0 1,2 188 - 0,0 14 1.020,8
05:48 13,3 11,4 12,8 88,0 1,2 192 - 0,0 14 1.020,8
05:47 13,2 11,3 12,6 88,0 1,0 192 - 0,0 14 1.020,9
05:46 13,2 11,3 12,6 88,0 1,0 187 - 0,0 13 1.020,9
05:45 13,2 11,3 12,6 88,0 0,9 180 - 0,0 12 1.020,8
05:44 13,2 11,3 12,6 88,0 0,9 179 - 0,0 12 1.020,8
05:43 13,2 11,3 12,6 88,0 1,2 182 - 0,0 12 1.020,8
05:42 13,2 11,3 12,6 88,0 1,3 186 - 0,0 12 1.020,8
05:41 13,2 11,3 12,6 88,0 1,2 191 - 0,0 12 1.020,8
05:40 13,2 11,3 12,6 88,0 1,3 197 - 0,0 11 1.020,8
05:39 13,2 11,3 12,6 88,0 1,3 202 - 0,0 11 1.020,8
05:38 13,1 11,2 12,5 88,0 1,2 203 - 0,0 11 1.020,7
05:37 13,1 11,2 12,5 88,0 1,1 202 - 0,0 11 1.020,7
05:35 13,1 11,2 12,5 88,0 1,1 203 - 0,0 10 1.020,7
05:34 13,1 11,2 12,5 88,0 1,1 203 - 0,0 9 1.020,7
05:33 13,1 11,2 12,5 88,0 1,3 204 - 0,0 9 1.020,7
05:32 13,1 11,2 12,5 88,0 1,6 205 - 0,0 9 1.020,7
05:31 13,1 11,2 12,5 88,0 1,5 206 - 0,0 9 1.020,6
05:30 13,1 11,2 12,5 88,0 1,3 205 - 0,0 8 1.020,6
05:29 13,1 11,2 12,5 88,0 1,2 201 - 0,0 7 1.020,6
05:28 13,1 11,2 12,5 88,0 1,0 196 - 0,0 7 1.020,6
05:27 13,1 11,2 12,5 88,0 1,0 192 - 0,0 7 1.020,6
05:26 13,1 11,2 12,5 88,0 1,0 188 - 0,0 7 1.020,6
05:25 13,1 11,2 12,5 88,0 1,0 180 - 0,0 6 1.020,6
05:24 13,1 11,2 12,5 88,0 0,8 174 - 0,0 5 1.020,6
05:23 13,1 11,2 12,5 88,0 0,7 173 - 0,0 5 1.020,6
05:22 13,1 11,2 12,5 88,0 0,6 177 - 0,0 5 1.020,6
05:21 13,1 11,2 12,5 88,0 0,3 180 - 0,0 5 1.020,6
05:20 13,1 11,2 12,5 88,0 0,4 181 - 0,0 5 1.020,6
05:19 13,1 11,2 12,5 88,0 0,6 183 - 0,0 5 1.020,6
05:18 13,2 11,3 12,6 88,0 0,7 183 - 0,0 5 1.020,6
05:17 13,2 11,3 12,6 88,0 0,7 175 - 0,0 2 1.020,6
05:16 13,2 11,3 12,6 88,0 0,6 160 - 0,0 0 1.020,6
05:15 13,2 11,3 12,6 88,0 0,6 147 - 0,0 0 1.020,6
05:14 13,2 11,3 12,6 88,0 0,9 139 - 0,0 0 1.020,5
05:13 13,2 11,3 12,6 88,0 1,0 134 - 0,0 0 1.020,5
05:12 13,2 11,3 12,6 88,0 0,7 130 - 0,0 0 1.020,5
05:11 13,2 11,3 12,6 88,0 0,6 129 - 0,0 0 1.020,6
05:10 13,2 11,3 12,6 88,0 0,6 134 - 0,0 0 1.020,6
05:09 13,2 11,3 12,6 88,0 0,5 142 - 0,0 0 1.020,6
05:08 13,2 11,3 12,6 88,0 0,6 149 - 0,0 0 1.020,6
05:07 13,2 11,1 12,6 87,1 0,8 155 - 0,0 0 1.020,6
05:06 13,2 11,1 12,5 87,0 0,8 164 - 0,0 0 1.020,5
05:05 13,2 11,1 12,5 87,0 0,7 173 - 0,0 0 1.020,6
05:04 13,3 11,2 12,6 87,0 0,7 178 - 0,0 0 1.020,6
05:03 13,3 11,2 12,6 87,0 0,8 179 - 0,0 0 1.020,6
05:02 13,3 11,2 12,6 87,0 0,8 176 - 0,0 0 1.020,6
05:01 13,3 11,2 12,6 87,0 0,7 169 - 0,0 0 1.020,6
05:00 13,3 11,2 12,6 87,0 0,9 161 - 0,0 0 1.020,6
 
04:59 13,3 11,2 12,6 87,0 1,0 156 - 0,0 0 1.020,6
04:58 13,2 11,1 12,5 87,0 1,1 150 - 0,0 0 1.020,6
04:57 13,2 11,1 12,5 87,0 0,7 146 - 0,0 0 1.020,5
04:56 13,2 11,1 12,5 87,0 0,4 142 - 0,0 0 1.020,5
04:55 13,2 11,1 12,5 87,0 0,5 141 - 0,0 0 1.020,5
04:54 13,2 11,1 12,5 87,0 0,9 143 - 0,0 0 1.020,5
04:53 13,2 11,1 12,5 87,0 0,9 145 - 0,0 0 1.020,5
04:52 13,2 11,1 12,5 87,0 0,9 146 - 0,0 0 1.020,5
04:51 13,2 11,1 12,5 87,0 0,9 147 - 0,0 0 1.020,4
04:50 13,2 11,1 12,5 87,0 0,9 147 - 0,0 0 1.020,4
04:49 13,2 11,1 12,5 87,0 0,7 148 - 0,0 0 1.020,5
04:48 13,2 11,1 12,5 87,0 0,8 150 - 0,0 0 1.020,4
04:47 13,2 11,1 12,5 87,0 0,5 150 - 0,0 0 1.020,5
04:46 13,2 11,1 12,5 87,0 0,6 152 - 0,0 0 1.020,5
04:45 13,2 11,1 12,5 87,0 0,8 156 - 0,0 0 1.020,5
04:44 13,2 11,1 12,5 87,0 0,9 160 - 0,0 0 1.020,5
04:43 13,2 11,1 12,5 87,0 0,8 161 - 0,0 0 1.020,5
04:42 13,2 11,1 12,5 87,0 0,6 160 - 0,0 0 1.020,5
04:41 13,2 11,1 12,5 87,0 0,5 160 - 0,0 0 1.020,5
04:40 13,2 11,1 12,5 87,0 0,5 161 - 0,0 0 1.020,5
04:39 13,2 11,1 12,5 87,0 0,5 160 - 0,0 0 1.020,6
04:38 13,2 11,1 12,5 87,0 0,6 158 - 0,0 0 1.020,5
04:37 13,2 11,1 12,5 87,0 0,6 153 - 0,0 0 1.020,5
04:36 13,2 11,1 12,5 87,0 0,7 147 - 0,0 0 1.020,6
04:35 13,2 11,1 12,5 87,0 0,7 143 - 0,0 0 1.020,5
04:34 13,2 11,1 12,5 87,0 0,7 140 - 0,0 0 1.020,5
04:33 13,2 11,1 12,5 87,0 0,6 139 - 0,0 0 1.020,6
04:32 13,2 11,1 12,5 87,0 0,6 137 - 0,0 0 1.020,6
04:31 13,2 11,1 12,5 87,0 0,6 134 - 0,0 0 1.020,6
04:30 13,2 11,1 12,5 87,0 0,7 131 - 0,0 0 1.020,6
04:29 13,2 11,1 12,5 87,0 0,8 128 - 0,0 0 1.020,6
04:28 13,2 11,1 12,5 87,0 0,9 127 - 0,0 0 1.020,6
04:27 13,2 10,9 12,5 86,2 0,9 128 - 0,0 0 1.020,6
04:26 13,2 10,9 12,4 86,0 0,7 127 - 0,0 0 1.020,6
04:25 13,2 10,9 12,4 86,0 0,5 131 - 0,0 0 1.020,6
04:24 13,2 10,9 12,4 86,0 0,6 136 - 0,0 0 1.020,6
04:23 13,2 10,9 12,4 86,0 0,8 136 - 0,0 0 1.020,6
04:22 13,2 10,9 12,4 86,0 0,8 131 - 0,0 0 1.020,6
04:21 13,2 10,9 12,4 86,0 0,7 127 - 0,0 0 1.020,6
04:20 13,2 10,9 12,4 86,0 0,6 127 - 0,0 0 1.020,6
04:19 13,2 10,9 12,4 86,0 0,7 128 - 0,0 0 1.020,6
04:18 13,2 10,9 12,4 86,0 0,8 125 - 0,0 0 1.020,6
04:17 13,2 10,9 12,4 86,0 0,8 127 - 0,0 0 1.020,6
04:16 13,3 11,0 12,5 86,0 0,8 132 - 0,0 0 1.020,6
04:15 13,2 10,9 12,4 86,0 0,7 139 - 0,0 0 1.020,6
04:14 13,3 11,0 12,5 86,0 0,6 143 - 0,0 0 1.020,6
04:13 13,3 11,0 12,5 86,0 0,7 143 - 0,0 0 1.020,6
04:12 13,3 11,0 12,5 86,0 0,7 144 - 0,0 0 1.020,6
04:11 13,3 11,0 12,5 86,0 0,6 145 - 0,0 0 1.020,6
04:10 13,3 11,0 12,5 86,0 0,5 144 - 0,0 0 1.020,6
04:09 13,3 11,0 12,5 86,0 0,5 139 - 0,0 0 1.020,6
04:08 13,3 11,0 12,5 86,0 0,6 137 - 0,0 0 1.020,6
04:07 13,3 11,0 12,5 86,0 0,5 139 - 0,0 0 1.020,6
04:06 13,3 11,0 12,5 86,0 0,5 141 - 0,0 0 1.020,6
04:05 13,3 11,0 12,5 86,0 0,5 140 - 0,0 0 1.020,6
04:04 13,3 11,0 12,5 86,0 0,5 138 - 0,0 0 1.020,6
04:03 13,3 11,0 12,5 86,0 0,5 138 - 0,0 0 1.020,6
04:02 13,3 10,8 12,4 85,1 0,6 138 - 0,0 0 1.020,6
04:01 13,4 10,9 12,5 85,0 0,6 136 - 0,0 0 1.020,6
04:00 13,3 10,8 12,4 85,0 0,7 134 - 0,0 0 1.020,6
 
03:59 13,4 10,9 12,5 85,0 0,7 132 - 0,0 0 1.020,6
03:58 13,4 10,9 12,5 85,0 0,6 130 - 0,0 0 1.020,6
03:57 13,4 10,9 12,5 85,0 0,6 127 - 0,0 0 1.020,6
03:56 13,4 10,9 12,5 85,0 0,8 121 - 0,0 0 1.020,6
03:55 13,4 10,9 12,5 85,0 1,0 117 - 0,0 0 1.020,6
03:54 13,4 10,9 12,5 85,0 1,0 119 - 0,0 0 1.020,6
03:53 13,4 10,9 12,5 85,0 1,1 122 - 0,0 0 1.020,6
03:52 13,4 10,9 12,5 85,0 0,9 122 - 0,0 0 1.020,6
03:51 13,4 10,9 12,5 85,0 0,9 122 - 0,0 0 1.020,6
03:50 13,4 10,9 12,5 85,0 0,9 122 - 0,0 0 1.020,6
03:49 13,4 10,9 12,5 85,0 1,0 122 - 0,0 0 1.020,6
03:48 13,4 10,9 12,5 85,0 1,0 119 - 0,0 0 1.020,6
03:47 13,4 10,8 12,5 84,4 1,1 116 - 0,0 0 1.020,6
03:46 13,4 10,9 12,5 84,8 0,9 115 - 0,0 0 1.020,6
03:45 13,4 10,9 12,5 84,9 0,8 116 - 0,0 0 1.020,6
03:44 13,4 10,8 12,4 84,0 0,9 116 - 0,0 0 1.020,6
03:43 13,4 10,8 12,4 84,0 0,9 116 - 0,0 0 1.020,6
03:42 13,5 10,8 12,5 84,0 1,0 116 - 0,0 0 1.020,6
03:41 13,4 10,8 12,4 84,0 1,0 117 - 0,0 0 1.020,6
03:40 13,5 10,8 12,5 84,0 0,9 120 - 0,0 0 1.020,6
03:39 13,5 10,8 12,5 84,0 0,7 123 - 0,0 0 1.020,6
03:38 13,5 10,8 12,5 84,0 0,9 126 - 0,0 0 1.020,6
03:37 13,5 10,8 12,5 84,0 1,0 129 - 0,0 0 1.020,6
03:36 13,5 10,8 12,5 84,0 1,0 131 - 0,0 0 1.020,6
03:35 13,5 10,8 12,5 84,0 1,0 128 - 0,0 0 1.020,6
03:34 13,6 10,8 12,5 83,2 1,0 123 - 0,0 0 1.020,6
03:33 13,6 10,8 12,5 83,0 0,8 118 - 0,0 0 1.020,6
03:32 13,6 10,8 12,5 83,0 0,9 115 - 0,0 0 1.020,6
03:31 13,6 10,8 12,5 83,0 1,1 111 - 0,0 0 1.020,6
03:30 13,6 10,8 12,5 83,0 1,2 108 - 0,0 0 1.020,6
03:29 13,6 10,8 12,5 83,0 1,2 107 - 0,0 0 1.020,6
03:28 13,6 10,8 12,5 83,0 0,8 106 - 0,0 0 1.020,7
03:27 13,6 10,8 12,5 83,0 0,4 106 - 0,0 0 1.020,7
03:26 13,6 10,8 12,5 83,0 0,0 104 - 0,0 0 1.020,6
03:25 13,7 10,9 12,6 83,0 0,0 103 - 0,0 0 1.020,6
03:24 13,7 10,9 12,6 83,0 0,0 106 - 0,0 0 1.020,6
03:23 13,7 10,9 12,6 83,0 0,0 111 - 0,0 0 1.020,7
03:22 13,7 10,7 12,5 82,1 0,0 111 - 0,0 0 1.020,7
03:20 13,7 10,7 12,5 82,0 0,2 112 - 0,0 0 1.020,7
03:19 13,8 10,8 12,6 82,0 0,7 114 - 0,0 0 1.020,7
03:18 13,8 10,8 12,6 82,0 1,0 118 - 0,0 0 1.020,7
03:17 13,8 10,8 12,6 82,0 0,9 122 - 0,0 0 1.020,7
03:16 13,8 10,8 12,6 82,0 0,7 124 - 0,0 0 1.020,7
03:15 13,8 10,8 12,6 82,0 0,7 123 - 0,0 0 1.020,7
03:14 13,8 10,8 12,6 82,0 0,6 121 - 0,0 0 1.020,7
03:13 13,8 10,8 12,6 82,0 0,7 117 - 0,0 0 1.020,7
03:12 13,8 10,8 12,6 82,0 0,9 111 - 0,0 0 1.020,7
03:11 13,9 10,9 12,7 82,0 1,0 105 - 0,0 0 1.020,7
03:10 13,9 10,7 12,6 81,1 0,9 102 - 0,0 0 1.020,7
03:09 13,9 10,7 12,6 81,0 0,9 100 - 0,0 0 1.020,7
03:08 13,9 10,7 12,6 81,0 1,1 100 - 0,0 0 1.020,7
03:07 13,9 10,7 12,6 81,0 1,1 101 - 0,0 0 1.020,7
03:06 13,9 10,7 12,6 81,0 1,1 103 - 0,0 0 1.020,7
03:05 14,0 10,8 12,7 81,0 1,1 104 - 0,0 0 1.020,8
03:04 14,0 10,8 12,7 81,0 1,3 106 - 0,0 0 1.020,8
03:03 14,0 10,8 12,7 81,0 1,4 108 - 0,0 0 1.020,8
03:02 14,0 10,7 12,6 80,5 1,3 110 - 0,0 0 1.020,8
03:01 14,1 10,7 12,7 80,0 1,1 110 - 0,0 0 1.020,8
03:00 14,1 10,7 12,7 80,0 1,0 109 - 0,0 0 1.020,8
 
02:59 14,1 10,7 12,7 80,0 1,1 108 - 0,0 0 1.020,8
02:58 14,1 10,7 12,7 80,0 1,1 107 - 0,0 0 1.020,8
02:57 14,1 10,7 12,7 80,0 1,1 106 - 0,0 0 1.020,8
02:56 14,1 10,7 12,7 80,0 1,2 105 - 0,0 0 1.020,7
02:55 14,1 10,7 12,7 80,0 1,2 106 - 0,0 0 1.020,7
02:54 14,2 10,8 12,8 80,0 1,1 109 - 0,0 0 1.020,8
02:53 14,2 10,8 12,8 80,0 0,9 111 - 0,0 0 1.020,8
02:52 14,2 10,8 12,8 80,0 0,8 112 - 0,0 0 1.020,8
02:51 14,2 10,8 12,8 80,0 0,8 112 - 0,0 0 1.020,8
02:50 14,2 10,7 12,7 79,6 1,0 112 - 0,0 0 1.020,8
02:49 14,2 10,6 12,6 79,0 0,9 111 - 0,0 0 1.020,8
02:48 14,2 10,6 12,6 79,0 0,7 109 - 0,0 0 1.020,8
02:47 14,3 10,7 12,7 79,0 0,6 109 - 0,0 0 1.020,8
02:46 14,3 10,7 12,7 79,0 0,7 110 - 0,0 0 1.020,8
02:45 14,3 10,7 12,7 79,0 0,9 112 - 0,0 0 1.020,8
02:44 14,3 10,7 12,7 79,0 0,8 112 - 0,0 0 1.020,8
02:43 14,3 10,7 12,7 79,0 0,5 111 - 0,0 0 1.020,9
02:42 14,3 10,7 12,7 79,0 0,3 111 - 0,0 0 1.020,9
02:41 14,3 10,7 12,7 79,0 0,7 111 - 0,0 0 1.020,9
02:40 14,4 10,8 12,8 79,0 1,0 109 - 0,0 0 1.020,9
02:39 14,4 10,8 12,8 79,0 1,1 110 - 0,0 0 1.020,9
02:38 14,4 10,7 12,8 78,6 1,2 112 - 0,0 0 1.020,9
02:37 14,4 10,6 12,7 78,0 1,1 115 - 0,0 0 1.020,9
02:36 14,5 10,7 12,8 78,0 1,1 116 - 0,0 0 1.020,9
02:35 14,5 10,7 12,8 78,0 1,0 118 - 0,0 0 1.021,0
02:34 14,6 10,8 12,9 78,0 0,8 117 - 0,0 0 1.021,0
02:33 14,6 10,8 12,9 78,0 0,5 112 - 0,0 0 1.021,0
02:32 14,6 10,8 12,9 78,0 0,5 103 - 0,0 0 1.021,0
02:31 14,6 10,8 12,9 78,0 0,8 94 - 0,0 0 1.021,0
02:30 14,6 10,8 12,9 78,0 1,0 88 - 0,0 0 1.021,0
02:29 14,7 10,9 13,0 78,0 0,7 87 - 0,0 0 1.020,9
02:28 14,7 10,9 13,0 78,0 0,6 90 - 0,0 0 1.020,9
02:27 14,7 10,9 13,0 78,0 0,6 94 - 0,0 0 1.020,9
02:26 14,7 10,9 13,0 78,0 0,6 97 - 0,0 0 1.020,9
02:25 14,7 10,9 13,0 78,0 0,5 102 - 0,0 0 1.021,0
02:24 14,7 10,9 13,0 78,0 0,6 107 - 0,0 0 1.020,9
02:23 14,7 10,9 13,0 78,0 0,7 108 - 0,0 0 1.020,9
02:22 14,7 10,9 13,0 78,0 0,7 107 - 0,0 0 1.020,9
02:21 14,7 10,8 13,0 77,6 0,9 107 - 0,0 0 1.020,9
02:20 14,8 10,8 13,0 77,0 1,1 108 - 0,0 0 1.020,9
02:19 14,8 10,8 13,0 77,0 1,1 107 - 0,0 0 1.020,9
02:18 14,8 10,8 13,0 77,0 1,0 106 - 0,0 0 1.020,9
02:17 14,8 10,8 13,0 77,0 1,1 105 - 0,0 0 1.020,9
02:16 14,8 10,8 13,0 77,0 1,2 105 - 0,0 0 1.020,9
02:15 14,8 10,8 13,0 77,0 1,2 105 - 0,0 0 1.020,9
02:14 14,8 10,8 13,0 77,0 0,9 107 - 0,0 0 1.020,9
02:13 14,9 10,9 13,1 77,0 0,9 110 - 0,0 0 1.020,8
02:12 14,9 10,9 13,1 77,0 0,9 114 - 0,0 0 1.020,8
02:11 14,9 10,9 13,1 77,0 0,9 120 - 0,0 0 1.020,8
02:10 14,9 10,9 13,1 77,0 0,7 131 - 0,0 0 1.020,8
02:09 14,9 10,9 13,1 77,0 0,5 148 - 0,0 0 1.020,8
02:08 14,9 10,9 13,1 77,0 0,4 166 - 0,0 0 1.020,8
02:07 14,9 10,9 13,1 77,0 0,6 180 - 0,0 0 1.020,8
02:06 14,9 10,9 13,1 77,0 0,7 186 - 0,0 0 1.020,8
02:05 14,9 10,9 13,1 77,0 0,6 188 - 0,0 0 1.020,8
02:04 15,0 11,0 13,2 77,0 0,5 185 - 0,0 0 1.020,8
02:03 15,0 11,0 13,2 77,0 0,5 179 - 0,0 0 1.020,8
02:02 15,0 11,0 13,2 77,0 0,6 178 - 0,0 0 1.020,8
02:01 15,0 11,0 13,2 77,0 0,7 180 - 0,0 0 1.020,8
02:00 15,0 11,0 13,2 77,0 0,6 178 - 0,0 0 1.020,8
 
01:59 15,0 11,0 13,2 77,0 0,6 171 - 0,0 0 1.020,8
01:58 15,0 11,0 13,2 77,0 0,3 165 - 0,0 0 1.020,8
01:57 15,0 11,0 13,2 77,0 0,4 162 - 0,0 0 1.020,8
01:56 15,1 11,1 13,3 77,0 0,6 157 - 0,0 0 1.020,8
01:55 15,1 11,1 13,3 77,0 0,6 155 - 0,0 0 1.020,8
01:54 15,1 11,1 13,3 77,0 0,6 162 - 0,0 0 1.020,9
01:53 15,1 11,1 13,3 77,0 0,7 168 - 0,0 0 1.020,9
01:52 15,1 11,1 13,3 77,0 0,7 169 - 0,0 0 1.020,9
01:51 15,1 11,1 13,3 77,0 0,8 169 - 0,0 0 1.020,9
01:50 15,1 11,1 13,3 77,0 0,7 170 - 0,0 0 1.020,8
01:49 15,1 11,1 13,3 77,0 0,8 175 - 0,0 0 1.020,8
01:48 15,1 11,1 13,3 77,0 0,8 180 - 0,0 0 1.020,8
01:47 15,1 11,1 13,3 77,0 0,8 185 - 0,0 0 1.020,8
01:46 15,1 11,0 13,2 76,7 0,8 191 - 0,0 0 1.020,8
01:45 15,1 10,9 13,2 76,0 1,0 194 - 0,0 0 1.020,8
01:44 15,1 10,9 13,2 76,0 1,0 196 - 0,0 0 1.020,8
01:43 15,1 10,9 13,2 76,0 1,1 196 - 0,0 0 1.020,8
01:42 15,1 10,9 13,2 76,0 1,1 196 - 0,0 0 1.020,8
01:41 15,1 10,9 13,2 76,0 1,0 197 - 0,0 0 1.020,8
01:40 15,1 10,9 13,2 76,0 0,8 199 - 0,0 0 1.020,8
01:39 15,1 10,9 13,2 76,0 0,9 202 - 0,0 0 1.020,8
01:38 15,1 10,9 13,2 76,0 0,9 202 - 0,0 0 1.020,8
01:37 15,1 10,9 13,2 76,0 0,7 201 - 0,0 0 1.020,8
01:36 15,2 11,0 13,3 76,0 0,6 198 - 0,0 0 1.020,8
01:35 15,2 11,0 13,3 76,0 0,7 197 - 0,0 0 1.020,8
01:34 15,2 11,0 13,3 76,0 0,7 197 - 0,0 0 1.020,8
01:33 15,2 11,0 13,3 76,0 0,6 198 - 0,0 0 1.020,7
01:32 15,2 11,0 13,3 76,0 0,6 198 - 0,0 0 1.020,7
01:31 15,2 11,0 13,3 76,0 0,5 200 - 0,0 0 1.020,7
01:30 15,2 11,0 13,3 76,0 0,5 201 - 0,0 0 1.020,7
01:29 15,2 11,0 13,3 76,0 0,5 200 - 0,0 0 1.020,7
01:28 15,2 11,0 13,3 76,0 0,5 196 - 0,0 0 1.020,7
01:27 15,2 11,0 13,3 76,0 0,4 193 - 0,0 0 1.020,7
01:26 15,2 11,0 13,3 76,0 0,4 195 - 0,0 0 1.020,7
01:25 15,2 11,0 13,3 76,0 0,4 194 - 0,0 0 1.020,7
01:24 15,2 11,0 13,3 76,0 0,3 188 - 0,0 0 1.020,7
01:23 15,2 11,0 13,3 76,0 0,4 185 - 0,0 0 1.020,7
01:22 15,3 11,1 13,4 76,0 0,5 187 - 0,0 0 1.020,6
01:21 15,3 11,1 13,4 76,0 0,6 190 - 0,0 0 1.020,6
01:20 15,3 11,1 13,4 76,0 0,6 187 - 0,0 0 1.020,6
01:19 15,3 11,1 13,4 76,0 0,6 184 - 0,0 0 1.020,7
01:18 15,3 11,1 13,4 76,0 0,6 185 - 0,0 0 1.020,7
01:17 15,3 11,1 13,4 76,0 0,6 187 - 0,0 0 1.020,7
01:16 15,3 11,1 13,4 76,0 0,6 187 - 0,0 0 1.020,7
01:15 15,3 11,1 13,4 76,0 0,5 190 - 0,0 0 1.020,7
01:14 15,3 11,1 13,4 76,0 0,3 196 - 0,0 0 1.020,7
01:13 15,3 11,1 13,3 75,9 0,5 206 - 0,0 0 1.020,7
01:12 15,4 11,0 13,3 75,0 0,6 211 - 0,0 0 1.020,7
01:11 15,4 11,0 13,3 75,0 0,7 214 - 0,0 0 1.020,7
01:10 15,4 11,0 13,3 75,0 0,9 214 - 0,0 0 1.020,7
01:09 15,4 11,0 13,3 75,0 0,9 214 - 0,0 0 1.020,7
01:08 15,4 11,0 13,3 75,0 0,9 213 - 0,0 0 1.020,7
01:07 15,4 11,0 13,3 75,0 0,9 212 - 0,0 0 1.020,7
01:05 15,4 11,0 13,3 75,0 0,9 211 - 0,0 0 1.020,7
01:04 15,4 11,0 13,3 75,0 0,8 209 - 0,0 0 1.020,7
01:03 15,4 11,0 13,3 75,0 0,6 205 - 0,0 0 1.020,7
01:02 15,4 11,0 13,3 75,0 0,4 200 - 0,0 0 1.020,7
01:01 15,4 11,0 13,3 75,0 0,5 196 - 0,0 0 1.020,7
01:00 15,5 11,1 13,4 75,0 0,6 193 - 0,0 0 1.020,7
 
00:59 15,4 11,0 13,3 75,0 0,7 194 - 0,0 0 1.020,7
00:58 15,5 11,1 13,4 75,0 0,6 198 - 0,0 0 1.020,7
00:57 15,5 11,1 13,4 75,0 0,7 201 - 0,0 0 1.020,8
00:56 15,5 11,1 13,4 75,0 0,7 202 - 0,0 0 1.020,8
00:55 15,5 11,1 13,4 75,0 0,8 203 - 0,0 0 1.020,8
00:54 15,5 11,0 13,4 74,8 0,9 205 - 0,0 0 1.020,8
00:53 15,5 10,9 13,3 74,0 0,8 209 - 0,0 0 1.020,8
00:52 15,5 10,9 13,3 74,0 0,8 213 - 0,0 0 1.020,8
00:51 15,5 10,9 13,3 74,0 0,8 216 - 0,0 0 1.020,8
00:50 15,5 10,9 13,3 74,0 0,9 218 - 0,0 0 1.020,7
00:49 15,5 10,9 13,3 74,0 0,9 218 - 0,0 0 1.020,7
00:48 15,5 10,9 13,3 74,0 0,9 213 - 0,0 0 1.020,8
00:47 15,6 11,0 13,4 74,0 0,8 205 - 0,0 0 1.020,8
00:46 15,6 11,0 13,4 74,0 0,7 195 - 0,0 0 1.020,8
00:45 15,6 11,0 13,4 74,0 0,5 187 - 0,0 0 1.020,8
00:44 15,6 11,0 13,4 74,0 0,3 180 - 0,0 0 1.020,8
00:43 15,6 11,0 13,4 74,0 0,4 170 - 0,0 0 1.020,7
00:42 15,6 11,0 13,4 74,0 0,5 165 - 0,0 0 1.020,7
00:41 15,7 11,1 13,5 74,0 0,6 166 - 0,0 0 1.020,7
00:40 15,7 11,0 13,4 73,4 0,6 167 - 0,0 0 1.020,7
00:39 15,7 10,9 13,4 73,0 0,4 169 - 0,0 0 1.020,7
00:38 15,7 10,9 13,4 73,0 0,3 177 - 0,0 0 1.020,7
00:37 15,7 10,9 13,4 73,0 0,4 190 - 0,0 0 1.020,7
00:36 15,7 10,9 13,4 73,0 0,5 199 - 0,0 0 1.020,8
00:35 15,7 10,9 13,4 73,0 0,8 201 - 0,0 0 1.020,7
00:34 15,7 10,9 13,4 73,0 0,8 201 - 0,0 0 1.020,7
00:33 15,7 10,9 13,4 73,0 0,6 201 - 0,0 0 1.020,7
00:32 15,7 10,9 13,4 73,0 0,7 201 - 0,0 0 1.020,7
00:31 15,7 10,9 13,4 73,0 0,8 198 - 0,0 0 1.020,7
00:30 15,8 11,0 13,5 73,0 0,6 189 - 0,0 0 1.020,7
00:29 15,8 10,9 13,4 72,5 0,4 174 - 0,0 0 1.020,7
00:28 15,8 10,8 13,3 72,0 0,4 157 - 0,0 0 1.020,7
00:27 15,8 10,8 13,3 72,0 0,7 145 - 0,0 0 1.020,7
00:26 15,8 10,8 13,3 72,0 0,7 141 - 0,0 0 1.020,7
00:25 15,9 10,9 13,4 72,0 0,5 143 - 0,0 0 1.020,7
00:24 15,9 10,9 13,4 72,0 0,5 149 - 0,0 0 1.020,7
00:23 15,9 10,9 13,4 72,0 0,6 162 - 0,0 0 1.020,7
00:22 15,9 10,9 13,4 72,0 0,6 175 - 0,0 0 1.020,7
00:21 15,9 10,9 13,4 72,0 0,5 182 - 0,0 0 1.020,7
00:20 16,0 11,0 13,5 72,0 0,6 186 - 0,0 0 1.020,7
00:19 16,0 11,0 13,5 72,0 0,8 190 - 0,0 0 1.020,7
00:18 16,0 10,9 13,5 71,6 0,7 195 - 0,0 0 1.020,7
00:17 16,0 10,7 13,4 71,0 0,5 199 - 0,0 0 1.020,7
00:16 16,1 10,8 13,5 71,0 0,5 200 - 0,0 0 1.020,7
00:15 16,1 10,8 13,5 71,0 0,6 201 - 0,0 0 1.020,7
00:14 16,1 10,8 13,5 71,0 0,9 201 - 0,0 0 1.020,7
00:13 16,1 10,8 13,5 71,0 1,2 200 - 0,0 0 1.020,7
00:12 16,1 10,8 13,5 71,0 1,4 198 - 0,0 0 1.020,7
00:11 16,2 10,9 13,6 71,0 1,4 197 - 0,0 0 1.020,7
00:10 16,2 10,9 13,6 71,0 1,2 196 - 0,0 0 1.020,7
00:09 16,2 10,9 13,6 71,0 0,9 195 - 0,0 0 1.020,7
00:08 16,2 10,9 13,6 71,0 0,6 196 - 0,0 0 1.020,6
00:07 16,2 10,9 13,6 71,0 0,4 197 - 0,0 0 1.020,6
00:06 16,3 11,0 13,7 71,0 0,5 197 - 0,0 0 1.020,6
00:05 16,3 11,0 13,7 71,0 0,6 195 - 0,0 0 1.020,7
00:04 16,3 11,0 13,7 71,0 0,5 189 - 0,0 0 1.020,6
00:03 16,3 11,0 13,7 71,0 0,5 183 - 0,0 0 1.020,6
00:02 16,4 11,1 13,8 70,9 0,6 178 - 0,0 0 1.020,6
00:01 16,4 10,9 13,6 70,0 0,8 177 - 0,0 0 1.020,6
00:00 20,0 14,4 17,0 70,0 0,8 179 - 0,0 0 1.020,6
 
23:59 16,4 10,9 13,6 70,0 0,7 179 - 0,2 0 1.020,6
23:58 16,4 10,9 13,6 70,0 0,6 184 - 0,2 0 1.020,6
23:57 16,4 10,9 13,6 70,0 0,6 194 - 0,2 0 1.020,6
23:56 16,5 11,0 13,7 70,0 0,9 202 - 0,2 0 1.020,6
23:55 16,5 11,0 13,7 70,0 1,3 205 - 0,2 0 1.020,7
23:54 16,5 11,0 13,7 70,0 1,7 206 - 0,2 0 1.020,6
23:53 16,6 11,1 13,8 70,0 1,6 213 - 0,2 0 1.020,6
23:52 16,6 11,1 13,8 70,0 1,3 213 - 0,2 0 1.020,6
23:51 16,6 11,1 13,8 70,0 1,0 182 - 0,2 0 1.020,6
23:50 16,6 11,1 13,8 70,0 1,0 208 - 0,2 0 1.020,6
23:49 16,6 11,1 13,8 70,0 0,8 165 - 0,2 0 1.020,6
23:48 16,7 11,2 13,9 70,0 1,1 180 - 0,2 0 1.020,5
23:47 16,7 11,2 13,9 70,0 1,0 190 - 0,2 0 1.020,5
23:46 16,7 11,2 13,9 70,0 1,6 223 - 0,2 0 1.020,5
23:45 16,7 11,2 13,9 70,0 1,6 232 - 0,2 0 1.020,5
23:44 16,7 11,2 13,9 70,0 1,9 201 - 0,2 0 1.020,5
23:43 16,7 11,2 13,9 70,0 1,3 180 - 0,2 0 1.020,5
23:42 16,7 11,2 13,9 70,0 1,2 191 - 0,2 0 1.020,5
23:41 16,7 11,2 13,9 70,0 1,3 252 - 0,2 0 1.020,5
23:40 16,8 11,3 14,0 70,0 1,8 186 - 0,2 0 1.020,5
23:39 16,8 11,3 14,0 70,0 1,3 202 - 0,2 0 1.020,6